Wetterdaten: Dienstag, 28.01.2020
Datum Zeit Temp. Aussen Temp. o. S. Temp +5cm Feuchte Auss Luftdruck Regen Sonnenschein Regendauer Solar Windben Empfang
28.01.2020 00:00 6,9 C 5,6 C 5,0 C 96 % 996,0 hPa 0,2 l/m 0 min 2 min 0 W/m 22,5 km/h (4 Bft) 95,74 %
28.01.2020 00:02 6,9 C 5,6 C 5,0 C 96 % 996,0 hPa 0,0 l/m 0 min 2 min 0 W/m 9,7 km/h (2 Bft) 15,38 %
28.01.2020 00:04 6,9 C 5,6 C 5,0 C 96 % 996,1 hPa 0,0 l/m 0 min 2 min 0 W/m 25,7 km/h (4 Bft) 80,43 %
28.01.2020 00:08 6,9 C 5,6 C 5,0 C 96 % 995,9 hPa 0,0 l/m 0 min 4 min 0 W/m 25,7 km/h (4 Bft) 98,94 %
28.01.2020 00:10 6,9 C 5,6 C 5,0 C 96 % 995,9 hPa 0,0 l/m 0 min 2 min 0 W/m 25,7 km/h (4 Bft) 95,74 %
28.01.2020 00:12 6,9 C 5,6 C 5,0 C 96 % 995,9 hPa 0,0 l/m 0 min 2 min 0 W/m 22,5 km/h (4 Bft) 97,87 %
28.01.2020 00:14 6,9 C 5,6 C 5,0 C 96 % 995,9 hPa 0,0 l/m 0 min 2 min 0 W/m 19,3 km/h (3 Bft) 100,00 %
28.01.2020 00:16 7,0 C 5,6 C 5,0 C 96 % 996,0 hPa 0,0 l/m 0 min 2 min 0 W/m 12,9 km/h (3 Bft) 97,87 %
28.01.2020 00:18 7,0 C 5,6 C 5,0 C 96 % 996,0 hPa 0,0 l/m 0 min 2 min 0 W/m 12,9 km/h (3 Bft) 97,87 %
28.01.2020 00:20 7,0 C 5,6 C 5,0 C 96 % 996,0 hPa 0,2 l/m 0 min 2 min 0 W/m 16,1 km/h (3 Bft) 97,87 %
28.01.2020 00:22 7,0 C 5,6 C 5,0 C 96 % 995,9 hPa 0,0 l/m 0 min 2 min 0 W/m 6,4 km/h (2 Bft) 95,74 %
28.01.2020 00:24 7,0 C 5,6 C 5,0 C 96 % 995,9 hPa 0,0 l/m 0 min 2 min 0 W/m 12,9 km/h (3 Bft) 97,87 %
28.01.2020 00:26 7,0 C 5,6 C 5,0 C 96 % 995,9 hPa 0,0 l/m 0 min 2 min 0 W/m 16,1 km/h (3 Bft) 97,83 %
28.01.2020 00:28 7,0 C 5,6 C 5,0 C 96 % 995,8 hPa 0,0 l/m 0 min 2 min 0 W/m 9,7 km/h (2 Bft) 97,87 %
28.01.2020 00:30 7,0 C 5,6 C 5,0 C 96 % 995,7 hPa 0,0 l/m 0 min 2 min 0 W/m 3,2 km/h (1 Bft) 97,87 %
28.01.2020 00:32 7,0 C 5,6 C 5,0 C 96 % 995,7 hPa 0,0 l/m 0 min 0 min 0 W/m 6,4 km/h (2 Bft) 95,74 %
28.01.2020 00:34 7,0 C 5,6 C 5,0 C 96 % 995,7 hPa 0,0 l/m 0 min 0 min 0 W/m 6,4 km/h (2 Bft) 97,87 %
28.01.2020 00:36 7,0 C 5,6 C 5,0 C 96 % 995,7 hPa 0,0 l/m 0 min 0 min 0 W/m 12,9 km/h (3 Bft) 97,87 %
28.01.2020 00:38 7,0 C 5,6 C 5,0 C 97 % 995,7 hPa 0,0 l/m 0 min 0 min 0 W/m 3,2 km/h (1 Bft) 95,65 %
28.01.2020 00:40 7,0 C 5,6 C 5,0 C 96 % 995,8 hPa 0,0 l/m 0 min 2 min 0 W/m 3,2 km/h (1 Bft) 95,74 %
28.01.2020 00:42 7,0 C 5,6 C 5,0 C 96 % 995,8 hPa 0,0 l/m 0 min 2 min 0 W/m 3,2 km/h (1 Bft) 54,35 %
28.01.2020 00:44 7,0 C 5,6 C 5,0 C 96 % 995,8 hPa 0,0 l/m 0 min 0 min 0 W/m 6,4 km/h (2 Bft) 95,74 %
28.01.2020 00:46 7,0 C 5,6 C 5,0 C 96 % 995,8 hPa 0,0 l/m 0 min 0 min 0 W/m 12,9 km/h (3 Bft) 95,74 %
28.01.2020 00:48 7,0 C 5,6 C 5,0 C 96 % 995,7 hPa 0,0 l/m 0 min 0 min 0 W/m 16,1 km/h (3 Bft) 97,87 %
28.01.2020 00:50 7,0 C 6,1 C 5,0 C 96 % 995,7 hPa 0,0 l/m 0 min 0 min 0 W/m 19,3 km/h (3 Bft) 97,83 %
28.01.2020 00:52 7,0 C 6,1 C 5,0 C 96 % 995,6 hPa 0,0 l/m 0 min 0 min 0 W/m 22,5 km/h (4 Bft) 97,87 %
28.01.2020 00:54 7,0 C 6,1 C 5,0 C 97 % 995,7 hPa 0,0 l/m 0 min 0 min 0 W/m 25,7 km/h (4 Bft) 97,87 %
28.01.2020 00:56 7,0 C 6,1 C 5,0 C 97 % 995,6 hPa 0,0 l/m 0 min 0 min 0 W/m 19,3 km/h (3 Bft) 97,87 %
28.01.2020 00:58 7,0 C 6,1 C 5,0 C 97 % 995,5 hPa 0,0 l/m 0 min 0 min 0 W/m 16,1 km/h (3 Bft) 97,87 %
28.01.2020 01:00 7,0 C 6,1 C 5,0 C 97 % 995,4 hPa 0,0 l/m 0 min 0 min 0 W/m 12,9 km/h (3 Bft) 97,83 %
28.01.2020 01:02 7,0 C 6,1 C 5,0 C 97 % 995,3 hPa 0,0 l/m 0 min 0 min 0 W/m 16,1 km/h (3 Bft) 95,74 %
28.01.2020 01:04 7,0 C 6,1 C 5,0 C 97 % 995,3 hPa 0,0 l/m 0 min 0 min 0 W/m 16,1 km/h (3 Bft) 97,87 %
28.01.2020 01:06 7,0 C 5,6 C 5,0 C 97 % 995,2 hPa 0,0 l/m 0 min 0 min 0 W/m 16,1 km/h (3 Bft) 95,74 %
28.01.2020 01:08 7,0 C 5,6 C 5,0 C 97 % 995,2 hPa 0,0 l/m 0 min 0 min 0 W/m 12,9 km/h (3 Bft) 95,74 %
28.01.2020 01:10 7,0 C 6,1 C 5,0 C 97 % 995,3 hPa 0,0 l/m 0 min 0 min 0 W/m 12,9 km/h (3 Bft) 95,74 %
28.01.2020 01:12 7,0 C 6,1 C 5,0 C 97 % 995,3 hPa 0,0 l/m 0 min 0 min 0 W/m 12,9 km/h (3 Bft) 97,83 %
28.01.2020 01:14 7,0 C 6,1 C 5,0 C 97 % 995,3 hPa 0,0 l/m 0 min 0 min 0 W/m 12,9 km/h (3 Bft) 95,74 %
28.01.2020 01:16 7,0 C 6,1 C 5,0 C 97 % 995,2 hPa 0,0 l/m 0 min 0 min 0 W/m 22,5 km/h (4 Bft) 95,74 %
28.01.2020 01:18 6,9 C 6,1 C 5,0 C 97 % 995,2 hPa 0,0 l/m 0 min 0 min 0 W/m 22,5 km/h (4 Bft) 97,87 %
28.01.2020 01:20 6,9 C 6,1 C 5,6 C 97 % 995,3 hPa 0,0 l/m 0 min 0 min 0 W/m 12,9 km/h (3 Bft) 95,74 %
28.01.2020 01:22 7,0 C 6,1 C 5,6 C 97 % 995,2 hPa 0,0 l/m 0 min 0 min 0 W/m 19,3 km/h (3 Bft) 97,87 %
28.01.2020 01:24 7,0 C 6,1 C 5,6 C 97 % 995,2 hPa 0,0 l/m 0 min 0 min 0 W/m 22,5 km/h (4 Bft) 97,83 %
28.01.2020 01:26 7,0 C 6,1 C 5,6 C 97 % 995,2 hPa 0,0 l/m 0 min 0 min 0 W/m 16,1 km/h (3 Bft) 95,74 %
28.01.2020 01:28 7,0 C 6,1 C 5,6 C 97 % 995,2 hPa 0,0 l/m 0 min 0 min 0 W/m 29,0 km/h (5 Bft) 97,87 %
28.01.2020 01:30 7,0 C 6,1 C 5,6 C 97 % 995,2 hPa 0,0 l/m 0 min 0 min 0 W/m 25,7 km/h (4 Bft) 97,87 %
28.01.2020 01:32 7,0 C 6,1 C 5,6 C 97 % 995,1 hPa 0,0 l/m 0 min 0 min 0 W/m 19,3 km/h (3 Bft) 93,62 %
28.01.2020 01:34 7,0 C 6,1 C 5,6 C 97 % 995,0 hPa 0,0 l/m 0 min 0 min 0 W/m 16,1 km/h (3 Bft) 97,87 %
28.01.2020 01:36 7,0 C 6,1 C 5,6 C 97 % 995,0 hPa 0,0 l/m 0 min 2 min 0 W/m 25,7 km/h (4 Bft) 97,83 %
28.01.2020 01:38 7,1 C 6,1 C 5,6 C 97 % 995,1 hPa 0,0 l/m 0 min 0 min 0 W/m 22,5 km/h (4 Bft) 97,87 %
28.01.2020 01:40 7,1 C 6,1 C 5,6 C 97 % 995,1 hPa 0,0 l/m 0 min 0 min 0 W/m 19,3 km/h (3 Bft) 97,87 %
28.01.2020 01:42 7,1 C 6,1 C 5,6 C 97 % 995,1 hPa 0,0 l/m 0 min 2 min 0 W/m 16,1 km/h (3 Bft) 97,87 %
28.01.2020 01:44 7,1 C 6,1 C 5,6 C 97 % 995,1 hPa 0,0 l/m 0 min 2 min 0 W/m 22,5 km/h (4 Bft) 95,74 %
28.01.2020 01:46 7,1 C 6,1 C 5,6 C 97 % 995,1 hPa 0,0 l/m 0 min 0 min 0 W/m 22,5 km/h (4 Bft) 95,65 %
28.01.2020 01:48 7,1 C 6,1 C 5,6 C 97 % 995,0 hPa 0,0 l/m 0 min 2 min 0 W/m 32,2 km/h (5 Bft) 95,74 %
28.01.2020 01:50 7,1 C 6,1 C 5,6 C 97 % 994,9 hPa 0,0 l/m 0 min 2 min 0 W/m 25,7 km/h (4 Bft) 100,00 %
28.01.2020 01:52 7,1 C 6,1 C 5,6 C 97 % 994,9 hPa 0,0 l/m 0 min 2 min 0 W/m 29,0 km/h (5 Bft) 100,00 %
28.01.2020 01:54 7,1 C 6,1 C 5,6 C 97 % 994,9 hPa 0,0 l/m 0 min 0 min 0 W/m 22,5 km/h (4 Bft) 100,00 %
28.01.2020 01:56 7,1 C 6,1 C 5,6 C 97 % 994,8 hPa 0,0 l/m 0 min 0 min 0 W/m 38,6 km/h (5 Bft) 100,00 %
28.01.2020 01:58 7,1 C 6,1 C 5,6 C 96 % 994,8 hPa 0,0 l/m 0 min 0 min 0 W/m 29,0 km/h (5 Bft) 100,00 %
28.01.2020 02:00 7,2 C 6,1 C 5,6 C 96 % 994,8 hPa 0,0 l/m 0 min 2 min 0 W/m 22,5 km/h (4 Bft) 100,00 %
28.01.2020 02:02 7,2 C 6,1 C 5,6 C 96 % 994,8 hPa 0,0 l/m 0 min 0 min 0 W/m 25,7 km/h (4 Bft) 97,87 %
28.01.2020 02:04 7,2 C 6,1 C 5,6 C 96 % 994,8 hPa 0,0 l/m 0 min 2 min 0 W/m 29,0 km/h (5 Bft) 97,87 %
28.01.2020 02:06 7,2 C 6,1 C 5,6 C 96 % 994,8 hPa 0,0 l/m 0 min 2 min 0 W/m 29,0 km/h (5 Bft) 97,87 %
28.01.2020 02:08 7,3 C 6,1 C 5,6 C 96 % 994,8 hPa 0,0 l/m 0 min 2 min 0 W/m 25,7 km/h (4 Bft) 97,87 %
28.01.2020 02:10 7,3 C 6,1 C 5,6 C 96 % 994,8 hPa 0,0 l/m 0 min 2 min 0 W/m 38,6 km/h (5 Bft) 97,83 %
28.01.2020 02:12 7,3 C 6,1 C 5,6 C 95 % 994,7 hPa 0,0 l/m 0 min 0 min 0 W/m 32,2 km/h (5 Bft) 97,87 %
28.01.2020 02:14 7,3 C 6,7 C 5,6 C 95 % 994,9 hPa 0,0 l/m 0 min 0 min 0 W/m 35,4 km/h (5 Bft) 97,87 %
28.01.2020 02:16 7,4 C 6,7 C 5,6 C 95 % 994,8 hPa 0,0 l/m 0 min 0 min 0 W/m 22,5 km/h (4 Bft) 91,49 %
28.01.2020 02:18 7,4 C 6,7 C 5,6 C 95 % 994,8 hPa 0,0 l/m 0 min 0 min 0 W/m 22,5 km/h (4 Bft) 97,87 %
28.01.2020 02:21 7,4 C 6,7 C 5,6 C 94 % 994,7 hPa 0,0 l/m 0 min 0 min 0 W/m 22,5 km/h (4 Bft) 97,14 %
28.01.2020 02:22 7,4 C 6,7 C 5,6 C 94 % 994,7 hPa 0,0 l/m 0 min 0 min 0 W/m 25,7 km/h (4 Bft) 95,65 %
28.01.2020 02:24 7,4 C 6,7 C 5,6 C 94 % 994,8 hPa 0,0 l/m 0 min 0 min 0 W/m 25,7 km/h (4 Bft) 97,87 %
28.01.2020 02:26 7,4 C 6,7 C 5,6 C 94 % 994,7 hPa 0,0 l/m 0 min 0 min 0 W/m 19,3 km/h (3 Bft) 97,87 %
28.01.2020 02:28 7,4 C 6,7 C 6,1 C 94 % 994,6 hPa 0,0 l/m 0 min 0 min 0 W/m 22,5 km/h (4 Bft) 97,87 %
28.01.2020 02:30 7,5 C 6,7 C 6,1 C 94 % 994,7 hPa 0,0 l/m 0 min 0 min 0 W/m 25,7 km/h (4 Bft) 97,87 %
28.01.2020 02:32 7,5 C 6,7 C 6,1 C 94 % 994,5 hPa 0,0 l/m 0 min 0 min 0 W/m 22,5 km/h (4 Bft) 97,87 %
28.01.2020 02:34 7,5 C 6,7 C 6,1 C 94 % 994,5 hPa 0,0 l/m 0 min 0 min 0 W/m 19,3 km/h (3 Bft) 97,83 %
28.01.2020 02:36 7,5 C 6,7 C 6,1 C 94 % 994,4 hPa 0,0 l/m 0 min 0 min 0 W/m 32,2 km/h (5 Bft) 97,87 %
28.01.2020 02:38 7,5 C 7,2 C 6,1 C 93 % 994,5 hPa 0,0 l/m 0 min 0 min 0 W/m 32,2 km/h (5 Bft) 97,87 %
28.01.2020 02:40 7,6 C 7,2 C 6,1 C 93 % 994,4 hPa 0,0 l/m 0 min 0 min 0 W/m 35,4 km/h (5 Bft) 97,87 %
28.01.2020 02:42 7,6 C 7,2 C 6,1 C 93 % 994,5 hPa 0,0 l/m 0 min 0 min 0 W/m 29,0 km/h (5 Bft) 97,87 %
28.01.2020 02:44 7,6 C 7,2 C 6,1 C 93 % 994,3 hPa 0,0 l/m 0 min 0 min 0 W/m 16,1 km/h (3 Bft) 97,83 %
28.01.2020 02:46 7,6 C 7,2 C 6,1 C 93 % 994,3 hPa 0,0 l/m 0 min 0 min 0 W/m 22,5 km/h (4 Bft) 95,74 %
28.01.2020 02:48 7,6 C 7,2 C 6,1 C 93 % 994,2 hPa 0,0 l/m 0 min 0 min 0 W/m 19,3 km/h (3 Bft) 97,87 %
28.01.2020 02:50 7,6 C 6,7 C 6,1 C 93 % 994,3 hPa 0,0 l/m 0 min 0 min 0 W/m 19,3 km/h (3 Bft) 97,87 %
28.01.2020 02:52 7,6 C 6,7 C 5,6 C 93 % 994,4 hPa 0,0 l/m 0 min 2 min 0 W/m 25,7 km/h (4 Bft) 95,74 %
28.01.2020 02:54 7,6 C 6,1 C 5,6 C 93 % 994,4 hPa 0,0 l/m 0 min 2 min 0 W/m 29,0 km/h (5 Bft) 97,87 %
28.01.2020 02:56 7,6 C 6,1 C 5,6 C 93 % 994,4 hPa 0,2 l/m 0 min 2 min 0 W/m 29,0 km/h (5 Bft) 95,65 %
28.01.2020 02:58 7,6 C 5,6 C 5,0 C 93 % 994,9 hPa 0,0 l/m 0 min 2 min 0 W/m 35,4 km/h (5 Bft) 95,74 %
28.01.2020 03:00 7,5 C 5,6 C 5,0 C 93 % 994,8 hPa 0,2 l/m 0 min 2 min 0 W/m 45,1 km/h (6 Bft) 97,87 %
28.01.2020 03:02 7,4 C 5,6 C 5,0 C 93 % 994,8 hPa 0,0 l/m 0 min 2 min 0 W/m 25,7 km/h (4 Bft) 91,49 %
28.01.2020 03:04 7,3 C 5,0 C 4,4 C 92 % 994,8 hPa 0,0 l/m 0 min 2 min 0 W/m 35,4 km/h (5 Bft) 91,49 %
28.01.2020 03:06 7,2 C 5,0 C 4,4 C 92 % 995,0 hPa 0,0 l/m 0 min 2 min 0 W/m 22,5 km/h (4 Bft) 97,87 %
28.01.2020 03:08 7,2 C 5,0 C 4,4 C 92 % 994,9 hPa 0,0 l/m 0 min 2 min 0 W/m 57,9 km/h (7 Bft) 97,83 %
28.01.2020 03:10 7,1 C 5,0 C 4,4 C 92 % 994,9 hPa 0,0 l/m 0 min 2 min 0 W/m 22,5 km/h (4 Bft) 97,87 %
28.01.2020 03:12 7,0 C 5,0 C 4,4 C 92 % 994,9 hPa 0,0 l/m 0 min 2 min 0 W/m 25,7 km/h (4 Bft) 93,62 %
28.01.2020 03:14 6,9 C 5,0 C 4,4 C 92 % 995,0 hPa 0,0 l/m 0 min 2 min 0 W/m 25,7 km/h (4 Bft) 95,74 %
28.01.2020 03:16 6,8 C 5,0 C 4,4 C 92 % 995,4 hPa 0,0 l/m 0 min 2 min 0 W/m 41,8 km/h (6 Bft) 97,87 %
28.01.2020 03:18 6,7 C 5,0 C 4,4 C 92 % 995,2 hPa 0,0 l/m 0 min 2 min 0 W/m 19,3 km/h (3 Bft) 97,87 %
28.01.2020 03:20 6,6 C 5,0 C 4,4 C 92 % 995,3 hPa 0,0 l/m 0 min 2 min 0 W/m 45,1 km/h (6 Bft) 97,83 %
28.01.2020 03:22 6,5 C 4,4 C 4,4 C 92 % 995,2 hPa 0,2 l/m 0 min 2 min 0 W/m 25,7 km/h (4 Bft) 97,87 %
28.01.2020 03:24 6,4 C 4,4 C 4,4 C 92 % 995,2 hPa 0,0 l/m 0 min 2 min 0 W/m 22,5 km/h (4 Bft) 97,87 %
28.01.2020 03:26 6,3 C 4,4 C 4,4 C 92 % 995,1 hPa 0,0 l/m 0 min 2 min 0 W/m 22,5 km/h (4 Bft) 97,87 %
28.01.2020 03:28 6,3 C 4,4 C 3,9 C 92 % 995,1 hPa 0,0 l/m 0 min 2 min 0 W/m 25,7 km/h (4 Bft) 97,87 %
28.01.2020 03:30 6,2 C 4,4 C 3,9 C 93 % 995,3 hPa 0,0 l/m 0 min 2 min 0 W/m 19,3 km/h (3 Bft) 95,74 %
28.01.2020 03:32 6,2 C 4,4 C 3,9 C 93 % 995,2 hPa 0,0 l/m 0 min 2 min 0 W/m 16,1 km/h (3 Bft) 95,65 %
28.01.2020 03:34 6,2 C 4,4 C 3,9 C 93 % 995,2 hPa 0,0 l/m 0 min 2 min 0 W/m 22,5 km/h (4 Bft) 97,87 %
28.01.2020 03:36 6,1 C 4,4 C 3,9 C 93 % 995,1 hPa 0,0 l/m 0 min 2 min 0 W/m 19,3 km/h (3 Bft) 100,00 %
28.01.2020 03:38 6,1 C 4,4 C 3,9 C 93 % 995,0 hPa 0,0 l/m 0 min 2 min 0 W/m 16,1 km/h (3 Bft) 97,87 %
28.01.2020 03:40 6,0 C 4,4 C 3,9 C 93 % 995,1 hPa 0,0 l/m 0 min 2 min 0 W/m 22,5 km/h (4 Bft) 97,87 %
28.01.2020 03:42 5,9 C 4,4 C 3,9 C 93 % 995,0 hPa 0,0 l/m 0 min 2 min 0 W/m 22,5 km/h (4 Bft) 95,65 %
28.01.2020 03:44 5,9 C 4,4 C 3,9 C 93 % 994,9 hPa 0,0 l/m 0 min 2 min 0 W/m 16,1 km/h (3 Bft) 95,74 %
28.01.2020 03:46 5,9 C 4,4 C 3,9 C 93 % 994,9 hPa 0,0 l/m 0 min 2 min 0 W/m 19,3 km/h (3 Bft) 95,74 %
28.01.2020 03:48 5,8 C 4,4 C 3,9 C 93 % 994,9 hPa 0,0 l/m 0 min 2 min 0 W/m 6,4 km/h (2 Bft) 95,74 %
28.01.2020 03:50 5,8 C 4,4 C 3,9 C 93 % 994,9 hPa 0,0 l/m 0 min 2 min 0 W/m 16,1 km/h (3 Bft) 95,74 %
28.01.2020 03:52 5,8 C 4,4 C 3,9 C 93 % 994,8 hPa 0,0 l/m 0 min 2 min 0 W/m 12,9 km/h (3 Bft) 97,87 %
28.01.2020 03:54 5,8 C 4,4 C 3,9 C 94 % 994,8 hPa 0,0 l/m 0 min 2 min 0 W/m 16,1 km/h (3 Bft) 97,83 %
28.01.2020 03:56 5,8 C 4,4 C 3,9 C 94 % 994,7 hPa 0,0 l/m 0 min 2 min 0 W/m 22,5 km/h (4 Bft) 97,87 %
28.01.2020 03:58 5,8 C 4,4 C 3,9 C 94 % 994,7 hPa 0,0 l/m 0 min 2 min 0 W/m 25,7 km/h (4 Bft) 97,87 %
28.01.2020 04:00 5,8 C 4,4 C 3,9 C 94 % 994,6 hPa 0,0 l/m 0 min 2 min 0 W/m 12,9 km/h (3 Bft) 97,87 %
28.01.2020 04:04 5,8 C 4,4 C 3,9 C 94 % 994,6 hPa 0,0 l/m 0 min 4 min 0 W/m 16,1 km/h (3 Bft) 100,00 %
28.01.2020 04:06 5,8 C 4,4 C 3,9 C 94 % 994,6 hPa 0,0 l/m 0 min 2 min 0 W/m 12,9 km/h (3 Bft) 97,83 %
28.01.2020 04:08 5,8 C 4,4 C 3,9 C 94 % 994,6 hPa 0,0 l/m 0 min 2 min 0 W/m 16,1 km/h (3 Bft) 95,74 %
28.01.2020 04:10 5,8 C 4,4 C 3,9 C 94 % 994,5 hPa 0,0 l/m 0 min 2 min 0 W/m 16,1 km/h (3 Bft) 97,87 %
28.01.2020 04:12 5,7 C 4,4 C 3,9 C 94 % 994,5 hPa 0,0 l/m 0 min 2 min 0 W/m 12,9 km/h (3 Bft) 97,87 %
28.01.2020 04:14 5,8 C 4,4 C 3,9 C 94 % 994,4 hPa 0,0 l/m 0 min 2 min 0 W/m 12,9 km/h (3 Bft) 97,87 %
28.01.2020 04:16 5,8 C 4,4 C 3,9 C 94 % 994,3 hPa 0,0 l/m 0 min 0 min 0 W/m 16,1 km/h (3 Bft) 97,87 %
28.01.2020 04:18 5,7 C 4,4 C 3,9 C 94 % 994,3 hPa 0,0 l/m 0 min 2 min 0 W/m 12,9 km/h (3 Bft) 97,83 %
28.01.2020 04:20 5,7 C 4,4 C 3,9 C 95 % 994,2 hPa 0,0 l/m 0 min 2 min 0 W/m 12,9 km/h (3 Bft) 97,87 %
28.01.2020 04:22 5,7 C 4,4 C 3,9 C 95 % 994,2 hPa 0,0 l/m 0 min 2 min 0 W/m 16,1 km/h (3 Bft) 97,87 %
28.01.2020 04:24 5,7 C 4,4 C 3,9 C 95 % 994,3 hPa 0,0 l/m 0 min 2 min 0 W/m 19,3 km/h (3 Bft) 95,74 %
28.01.2020 04:26 5,7 C 4,4 C 3,9 C 95 % 994,2 hPa 0,0 l/m 0 min 2 min 0 W/m 16,1 km/h (3 Bft) 97,87 %
28.01.2020 04:28 5,7 C 4,4 C 3,9 C 95 % 994,3 hPa 0,0 l/m 0 min 0 min 0 W/m 19,3 km/h (3 Bft) 100,00 %
28.01.2020 04:30 5,6 C 4,4 C 3,9 C 95 % 994,2 hPa 0,0 l/m 0 min 0 min 0 W/m 19,3 km/h (3 Bft) 100,00 %
28.01.2020 04:32 5,6 C 4,4 C 3,9 C 95 % 994,2 hPa 0,0 l/m 0 min 0 min 0 W/m 12,9 km/h (3 Bft) 97,87 %
28.01.2020 04:34 5,6 C 4,4 C 3,9 C 95 % 994,1 hPa 0,0 l/m 0 min 2 min 0 W/m 19,3 km/h (3 Bft) 100,00 %
28.01.2020 04:36 5,6 C 4,4 C 3,9 C 95 % 994,1 hPa 0,0 l/m 0 min 2 min 0 W/m 22,5 km/h (4 Bft) 100,00 %
28.01.2020 04:38 5,6 C 4,4 C 3,9 C 95 % 994,2 hPa 0,0 l/m 0 min 2 min 0 W/m 16,1 km/h (3 Bft) 100,00 %
28.01.2020 04:40 5,6 C 4,4 C 3,9 C 95 % 994,1 hPa 0,0 l/m 0 min 2 min 0 W/m 19,3 km/h (3 Bft) 100,00 %
28.01.2020 04:42 5,6 C 4,4 C 3,9 C 95 % 994,1 hPa 0,0 l/m 0 min 2 min 0 W/m 16,1 km/h (3 Bft) 100,00 %
28.01.2020 04:44 5,6 C 4,4 C 3,9 C 95 % 994,1 hPa 0,0 l/m 0 min 2 min 0 W/m 25,7 km/h (4 Bft) 57,45 %
28.01.2020 04:46 5,7 C 4,4 C 3,9 C 95 % 994,0 hPa 0,0 l/m 0 min 2 min 0 W/m 22,5 km/h (4 Bft) 100,00 %
28.01.2020 04:48 5,7 C 4,4 C 3,9 C 95 % 994,0 hPa 0,0 l/m 0 min 2 min 0 W/m 22,5 km/h (4 Bft) 100,00 %
28.01.2020 04:50 5,7 C 4,4 C 3,9 C 95 % 993,8 hPa 0,0 l/m 0 min 2 min 0 W/m 12,9 km/h (3 Bft) 100,00 %
28.01.2020 04:52 5,7 C 4,4 C 3,9 C 95 % 993,8 hPa 0,0 l/m 0 min 2 min 0 W/m 19,3 km/h (3 Bft) 97,83 %
28.01.2020 04:54 5,7 C 4,4 C 3,9 C 95 % 993,9 hPa 0,0 l/m 0 min 2 min 0 W/m 22,5 km/h (4 Bft) 100,00 %
28.01.2020 04:56 5,7 C 4,4 C 3,9 C 96 % 993,8 hPa 0,0 l/m 0 min 2 min 0 W/m 12,9 km/h (3 Bft) 100,00 %
28.01.2020 04:58 5,7 C 4,4 C 3,9 C 96 % 993,7 hPa 0,0 l/m 0 min 2 min 0 W/m 12,9 km/h (3 Bft) 100,00 %
28.01.2020 05:00 5,7 C 4,4 C 3,9 C 96 % 993,7 hPa 0,0 l/m 0 min 2 min 0 W/m 25,7 km/h (4 Bft) 100,00 %
28.01.2020 05:02 5,8 C 4,4 C 3,9 C 96 % 993,7 hPa 0,2 l/m 0 min 0 min 0 W/m 22,5 km/h (4 Bft) 100,00 %
28.01.2020 05:04 5,8 C 4,4 C 3,9 C 96 % 993,6 hPa 0,0 l/m 0 min 2 min 0 W/m 16,1 km/h (3 Bft) 97,83 %
28.01.2020 05:06 5,8 C 4,4 C 3,9 C 96 % 993,6 hPa 0,0 l/m 0 min 2 min 0 W/m 16,1 km/h (3 Bft) 97,87 %
28.01.2020 05:08 5,8 C 4,4 C 3,9 C 96 % 993,6 hPa 0,0 l/m 0 min 2 min 0 W/m 12,9 km/h (3 Bft) 97,87 %
28.01.2020 05:10 5,8 C 4,4 C 3,9 C 96 % 993,5 hPa 0,0 l/m 0 min 2 min 0 W/m 12,9 km/h (3 Bft) 100,00 %
28.01.2020 05:12 5,8 C 4,4 C 3,9 C 96 % 993,5 hPa 0,0 l/m 0 min 2 min 0 W/m 19,3 km/h (3 Bft) 100,00 %
28.01.2020 05:14 5,8 C 4,4 C 3,9 C 96 % 993,5 hPa 0,0 l/m 0 min 0 min 0 W/m 16,1 km/h (3 Bft) 97,87 %
28.01.2020 05:16 5,8 C 4,4 C 3,9 C 96 % 993,4 hPa 0,0 l/m 0 min 0 min 0 W/m 6,4 km/h (2 Bft) 100,00 %
28.01.2020 05:18 5,8 C 4,4 C 3,9 C 96 % 993,3 hPa 0,0 l/m 0 min 0 min 0 W/m 16,1 km/h (3 Bft) 100,00 %
28.01.2020 05:20 5,8 C 4,4 C 3,9 C 96 % 993,3 hPa 0,0 l/m 0 min 0 min 0 W/m 16,1 km/h (3 Bft) 100,00 %
28.01.2020 05:22 5,8 C 4,4 C 3,9 C 96 % 993,2 hPa 0,0 l/m 0 min 0 min 0 W/m 16,1 km/h (3 Bft) 100,00 %
28.01.2020 05:24 5,8 C 4,4 C 3,9 C 96 % 993,2 hPa 0,0 l/m 0 min 0 min 0 W/m 16,1 km/h (3 Bft) 100,00 %
28.01.2020 05:26 5,8 C 4,4 C 3,9 C 96 % 993,2 hPa 0,0 l/m 0 min 0 min 0 W/m 16,1 km/h (3 Bft) 100,00 %
28.01.2020 05:28 5,8 C 4,4 C 3,9 C 96 % 993,1 hPa 0,0 l/m 0 min 0 min 0 W/m 6,4 km/h (2 Bft) 97,87 %
28.01.2020 05:30 5,7 C 4,4 C 3,9 C 96 % 993,1 hPa 0,0 l/m 0 min 0 min 0 W/m 12,9 km/h (3 Bft) 97,87 %
28.01.2020 05:32 5,7 C 4,4 C 3,9 C 96 % 993,1 hPa 0,0 l/m 0 min 0 min 0 W/m 16,1 km/h (3 Bft) 93,62 %
28.01.2020 05:34 5,7 C 4,4 C 3,9 C 96 % 993,1 hPa 0,0 l/m 0 min 0 min 0 W/m 16,1 km/h (3 Bft) 93,62 %
28.01.2020 05:36 5,7 C 4,4 C 3,9 C 96 % 993,1 hPa 0,0 l/m 0 min 0 min 0 W/m 16,1 km/h (3 Bft) 97,87 %
28.01.2020 05:38 5,7 C 4,4 C 3,9 C 96 % 993,0 hPa 0,0 l/m 0 min 0 min 0 W/m 6,4 km/h (2 Bft) 95,65 %
28.01.2020 05:40 5,7 C 4,4 C 3,9 C 96 % 993,0 hPa 0,0 l/m 0 min 0 min 0 W/m 6,4 km/h (2 Bft) 97,87 %
28.01.2020 05:42 5,7 C 4,4 C 3,9 C 96 % 993,0 hPa 0,0 l/m 0 min 0 min 0 W/m 12,9 km/h (3 Bft) 91,49 %
28.01.2020 05:44 5,7 C 4,4 C 3,9 C 96 % 993,0 hPa 0,0 l/m 0 min 0 min 0 W/m 12,9 km/h (3 Bft) 97,87 %
28.01.2020 05:46 5,7 C 4,4 C 3,9 C 96 % 992,9 hPa 0,0 l/m 0 min 0 min 0 W/m 16,1 km/h (3 Bft) 97,87 %
28.01.2020 05:48 5,7 C 4,4 C 3,9 C 96 % 992,9 hPa 0,0 l/m 0 min 0 min 0 W/m 22,5 km/h (4 Bft) 91,49 %
28.01.2020 05:50 5,7 C 4,4 C 3,9 C 96 % 992,9 hPa 0,0 l/m 0 min 0 min 0 W/m 19,3 km/h (3 Bft) 93,48 %
28.01.2020 05:52 5,7 C 4,4 C 3,9 C 96 % 992,8 hPa 0,0 l/m 0 min 0 min 0 W/m 12,9 km/h (3 Bft) 95,74 %
28.01.2020 05:54 5,7 C 4,4 C 3,9 C 96 % 992,7 hPa 0,0 l/m 0 min 0 min 0 W/m 12,9 km/h (3 Bft) 95,74 %
28.01.2020 05:56 5,7 C 4,4 C 3,9 C 96 % 992,7 hPa 0,0 l/m 0 min 0 min 0 W/m 12,9 km/h (3 Bft) 93,62 %
28.01.2020 05:58 5,7 C 4,4 C 3,9 C 96 % 992,6 hPa 0,0 l/m 0 min 0 min 0 W/m 16,1 km/h (3 Bft) 95,74 %
28.01.2020 06:00 5,7 C 4,4 C 3,9 C 96 % 992,6 hPa 0,0 l/m 0 min 0 min 0 W/m 12,9 km/h (3 Bft) 95,74 %
28.01.2020 06:02 5,7 C 4,4 C 3,9 C 96 % 992,5 hPa 0,0 l/m 0 min 0 min 0 W/m 6,4 km/h (2 Bft) 93,48 %
28.01.2020 06:04 5,7 C 4,4 C 3,9 C 96 % 992,5 hPa 0,0 l/m 0 min 0 min 0 W/m 12,9 km/h (3 Bft) 95,74 %
28.01.2020 06:06 5,7 C 4,4 C 3,9 C 96 % 992,4 hPa 0,0 l/m 0 min 0 min 0 W/m 12,9 km/h (3 Bft) 95,74 %
28.01.2020 06:08 5,7 C 5,0 C 3,9 C 96 % 992,4 hPa 0,0 l/m 0 min 0 min 0 W/m 12,9 km/h (3 Bft) 95,74 %
28.01.2020 06:10 5,7 C 5,0 C 3,9 C 96 % 992,4 hPa 0,0 l/m 0 min 0 min 0 W/m 12,9 km/h (3 Bft) 93,62 %
28.01.2020 06:12 5,7 C 5,0 C 3,9 C 96 % 992,4 hPa 0,0 l/m 0 min 0 min 0 W/m 12,9 km/h (3 Bft) 95,74 %
28.01.2020 06:14 5,7 C 5,0 C 3,9 C 96 % 992,3 hPa 0,0 l/m 0 min 0 min 0 W/m 16,1 km/h (3 Bft) 93,48 %
28.01.2020 06:16 5,7 C 5,0 C 3,9 C 96 % 992,2 hPa 0,0 l/m 0 min 0 min 0 W/m 12,9 km/h (3 Bft) 93,62 %
28.01.2020 06:18 5,7 C 5,0 C 4,4 C 97 % 992,1 hPa 0,0 l/m 0 min 0 min 0 W/m 19,3 km/h (3 Bft) 95,74 %
28.01.2020 06:20 5,7 C 5,0 C 4,4 C 97 % 992,1 hPa 0,0 l/m 0 min 0 min 0 W/m 12,9 km/h (3 Bft) 91,49 %
28.01.2020 06:22 5,8 C 5,0 C 4,4 C 97 % 992,0 hPa 0,0 l/m 0 min 0 min 0 W/m 12,9 km/h (3 Bft) 93,62 %
28.01.2020 06:24 5,8 C 5,0 C 4,4 C 97 % 992,0 hPa 0,0 l/m 0 min 0 min 0 W/m 19,3 km/h (3 Bft) 93,48 %
28.01.2020 06:26 5,8 C 5,0 C 4,4 C 97 % 992,0 hPa 0,0 l/m 0 min 0 min 0 W/m 19,3 km/h (3 Bft) 91,49 %
28.01.2020 06:28 5,8 C 5,0 C 4,4 C 96 % 992,0 hPa 0,0 l/m 0 min 0 min 0 W/m 19,3 km/h (3 Bft) 93,62 %
28.01.2020 06:30 5,8 C 5,0 C 4,4 C 96 % 992,0 hPa 0,0 l/m 0 min 0 min 0 W/m 12,9 km/h (3 Bft) 93,62 %
28.01.2020 06:32 5,8 C 5,0 C 4,4 C 96 % 992,0 hPa 0,0 l/m 0 min 0 min 0 W/m 19,3 km/h (3 Bft) 95,74 %
28.01.2020 06:34 5,8 C 5,0 C 4,4 C 96 % 991,9 hPa 0,0 l/m 0 min 0 min 0 W/m 16,1 km/h (3 Bft) 93,62 %
28.01.2020 06:36 5,8 C 5,0 C 4,4 C 96 % 991,9 hPa 0,0 l/m 0 min 0 min 0 W/m 19,3 km/h (3 Bft) 97,83 %
28.01.2020 06:38 5,8 C 5,0 C 4,4 C 96 % 991,9 hPa 0,0 l/m 0 min 0 min 0 W/m 12,9 km/h (3 Bft) 97,87 %
28.01.2020 06:40 5,8 C 5,0 C 4,4 C 96 % 991,9 hPa 0,0 l/m 0 min 0 min 0 W/m 19,3 km/h (3 Bft) 100,00 %
28.01.2020 06:42 5,8 C 5,0 C 4,4 C 96 % 991,9 hPa 0,0 l/m 0 min 0 min 0 W/m 16,1 km/h (3 Bft) 93,62 %
28.01.2020 06:44 5,9 C 5,0 C 4,4 C 96 % 991,8 hPa 0,0 l/m 0 min 2 min 0 W/m 16,1 km/h (3 Bft) 97,87 %
28.01.2020 06:46 5,9 C 5,0 C 4,4 C 96 % 991,8 hPa 0,0 l/m 0 min 0 min 0 W/m 19,3 km/h (3 Bft) 95,74 %
28.01.2020 06:48 5,9 C 5,6 C 4,4 C 96 % 991,8 hPa 0,0 l/m 0 min 0 min 0 W/m 25,7 km/h (4 Bft) 97,83 %
28.01.2020 06:50 5,9 C 5,0 C 4,4 C 96 % 991,8 hPa 0,0 l/m 0 min 2 min 0 W/m 16,1 km/h (3 Bft) 97,87 %
28.01.2020 06:52 6,0 C 5,0 C 4,4 C 96 % 991,8 hPa 0,0 l/m 0 min 2 min 0 W/m 19,3 km/h (3 Bft) 95,74 %
28.01.2020 06:54 6,0 C 5,0 C 4,4 C 96 % 991,7 hPa 0,0 l/m 0 min 2 min 0 W/m 19,3 km/h (3 Bft) 97,87 %
28.01.2020 06:56 6,1 C 5,0 C 4,4 C 96 % 991,7 hPa 0,0 l/m 0 min 2 min 0 W/m 29,0 km/h (5 Bft) 97,87 %
28.01.2020 06:58 6,1 C 5,0 C 4,4 C 96 % 991,7 hPa 0,0 l/m 0 min 2 min 0 W/m 22,5 km/h (4 Bft) 95,74 %
28.01.2020 07:00 6,1 C 5,0 C 4,4 C 96 % 991,7 hPa 0,0 l/m 0 min 2 min 0 W/m 12,9 km/h (3 Bft) 95,65 %
28.01.2020 07:02 6,2 C 5,0 C 4,4 C 96 % 991,6 hPa 0,2 l/m 0 min 2 min 0 W/m 12,9 km/h (3 Bft) 97,87 %
28.01.2020 07:06 6,2 C 4,4 C 4,4 C 96 % 991,5 hPa 0,2 l/m 0 min 4 min 0 W/m 25,7 km/h (4 Bft) 100,00 %
28.01.2020 07:08 6,2 C 4,4 C 3,9 C 95 % 991,4 hPa 0,2 l/m 0 min 2 min 0 W/m 35,4 km/h (5 Bft) 100,00 %
28.01.2020 07:10 6,2 C 4,4 C 3,9 C 95 % 991,4 hPa 0,0 l/m 0 min 2 min 0 W/m 29,0 km/h (5 Bft) 95,65 %
28.01.2020 07:12 6,2 C 4,4 C 3,9 C 95 % 991,5 hPa 0,0 l/m 0 min 2 min 0 W/m 38,6 km/h (5 Bft) 100,00 %
28.01.2020 07:14 6,2 C 4,4 C 3,9 C 95 % 991,9 hPa 0,2 l/m 0 min 2 min 0 W/m 32,2 km/h (5 Bft) 100,00 %
28.01.2020 07:16 6,2 C 4,4 C 3,9 C 95 % 991,9 hPa 0,2 l/m 0 min 2 min 0 W/m 35,4 km/h (5 Bft) 100,00 %
28.01.2020 07:18 6,1 C 4,4 C 3,9 C 94 % 991,8 hPa 0,2 l/m 0 min 2 min 0 W/m 32,2 km/h (5 Bft) 97,87 %
28.01.2020 07:20 6,1 C 4,4 C 3,9 C 94 % 992,0 hPa 0,0 l/m 0 min 2 min 0 W/m 54,7 km/h (7 Bft) 100,00 %
28.01.2020 07:22 6,0 C 3,9 C 3,9 C 94 % 992,0 hPa 0,2 l/m 0 min 2 min 0 W/m 45,1 km/h (6 Bft) 100,00 %
28.01.2020 07:24 5,9 C 3,9 C 3,9 C 94 % 991,9 hPa 0,2 l/m 0 min 2 min 0 W/m 38,6 km/h (5 Bft) 100,00 %
28.01.2020 07:26 5,8 C 3,9 C 3,3 C 94 % 991,7 hPa 0,0 l/m 0 min 2 min 0 W/m 35,4 km/h (5 Bft) 100,00 %
28.01.2020 07:28 5,8 C 3,9 C 3,3 C 94 % 991,8 hPa 0,0 l/m 0 min 2 min 0 W/m 41,8 km/h (6 Bft) 100,00 %
28.01.2020 07:30 5,7 C 3,9 C 3,3 C 94 % 991,7 hPa 0,2 l/m 0 min 2 min 0 W/m 38,6 km/h (5 Bft) 97,87 %
28.01.2020 07:32 5,7 C 3,9 C 3,3 C 94 % 991,8 hPa 0,0 l/m 0 min 2 min 0 W/m 25,7 km/h (4 Bft) 100,00 %
28.01.2020 07:34 5,6 C 3,9 C 3,3 C 94 % 991,8 hPa 0,2 l/m 0 min 2 min 0 W/m 54,7 km/h (7 Bft) 100,00 %
28.01.2020 07:36 5,6 C 3,3 C 3,3 C 94 % 991,8 hPa 0,2 l/m 0 min 2 min 0 W/m 25,7 km/h (4 Bft) 100,00 %
28.01.2020 07:38 5,4 C 3,3 C 3,3 C 94 % 991,7 hPa 0,0 l/m 0 min 2 min 0 W/m 25,7 km/h (4 Bft) 100,00 %
28.01.2020 07:40 5,3 C 3,3 C 3,3 C 94 % 991,4 hPa 0,0 l/m 0 min 2 min 0 W/m 22,5 km/h (4 Bft) 100,00 %
28.01.2020 07:42 5,3 C 3,3 C 3,3 C 94 % 991,4 hPa 0,0 l/m 0 min 2 min 0 W/m 16,1 km/h (3 Bft) 100,00 %
28.01.2020 07:44 5,2 C 3,3 C 3,3 C 94 % 991,2 hPa 0,0 l/m 0 min 0 min 0 W/m 16,1 km/h (3 Bft) 100,00 %
28.01.2020 07:46 5,2 C 3,3 C 3,3 C 94 % 991,2 hPa 0,0 l/m 0 min 0 min 0 W/m 29,0 km/h (5 Bft) 100,00 %
28.01.2020 07:48 5,1 C 3,3 C 3,3 C 94 % 991,2 hPa 0,0 l/m 0 min 0 min 0 W/m 16,1 km/h (3 Bft) 100,00 %
28.01.2020 07:50 5,1 C 3,3 C 2,8 C 94 % 991,1 hPa 0,0 l/m 0 min 0 min 0 W/m 16,1 km/h (3 Bft) 100,00 %
28.01.2020 07:52 5,1 C 3,3 C 2,8 C 94 % 991,0 hPa 0,0 l/m 0 min 2 min 0 W/m 16,1 km/h (3 Bft) 100,00 %
28.01.2020 07:54 5,0 C 3,3 C 2,8 C 94 % 991,0 hPa 0,0 l/m 0 min 2 min 0 W/m 16,1 km/h (3 Bft) 100,00 %
28.01.2020 07:56 5,0 C 3,3 C 2,8 C 94 % 991,0 hPa 0,0 l/m 0 min 0 min 0 W/m 16,1 km/h (3 Bft) 100,00 %
28.01.2020 07:58 4,9 C 3,3 C 2,8 C 94 % 990,9 hPa 0,0 l/m 0 min 2 min 0 W/m 16,1 km/h (3 Bft) 100,00 %
28.01.2020 08:00 4,9 C 3,3 C 2,8 C 94 % 990,9 hPa 0,2 l/m 0 min 2 min 0 W/m 16,1 km/h (3 Bft) 100,00 %
28.01.2020 08:02 4,9 C 3,3 C 2,8 C 94 % 990,9 hPa 0,0 l/m 0 min 2 min 0 W/m 12,9 km/h (3 Bft) 100,00 %
28.01.2020 08:04 4,9 C 3,3 C 2,8 C 94 % 990,8 hPa 0,0 l/m 0 min 2 min 0 W/m 19,3 km/h (3 Bft) 100,00 %
28.01.2020 08:06 4,9 C 3,3 C 2,8 C 94 % 990,7 hPa 0,0 l/m 0 min 2 min 0 W/m 19,3 km/h (3 Bft) 100,00 %
28.01.2020 08:08 4,9 C 3,3 C 2,8 C 94 % 990,9 hPa 0,0 l/m 0 min 2 min 0 W/m 12,9 km/h (3 Bft) 100,00 %
28.01.2020 08:10 4,8 C 3,3 C 2,8 C 94 % 991,2 hPa 0,0 l/m 0 min 2 min 0 W/m 3,2 km/h (1 Bft) 100,00 %
28.01.2020 08:12 4,8 C 3,3 C 2,8 C 94 % 991,2 hPa 0,2 l/m 0 min 2 min 0 W/m 6,4 km/h (2 Bft) 100,00 %
28.01.2020 08:14 4,8 C 3,3 C 2,8 C 94 % 991,1 hPa 0,0 l/m 0 min 2 min 0 W/m 16,1 km/h (3 Bft) 100,00 %
28.01.2020 08:16 4,8 C 3,3 C 2,8 C 95 % 991,0 hPa 0,2 l/m 0 min 2 min 0 W/m 22,5 km/h (4 Bft) 97,87 %
28.01.2020 08:18 4,8 C 3,3 C 2,8 C 95 % 991,1 hPa 0,0 l/m 0 min 2 min 0 W/m 19,3 km/h (3 Bft) 97,87 %
28.01.2020 08:20 4,8 C 3,3 C 2,8 C 95 % 991,1 hPa 0,0 l/m 0 min 0 min 0 W/m 25,7 km/h (4 Bft) 100,00 %
28.01.2020 08:22 4,8 C 3,3 C 2,8 C 95 % 991,1 hPa 0,0 l/m 0 min 0 min 0 W/m 19,3 km/h (3 Bft) 100,00 %
28.01.2020 08:24 4,8 C 3,3 C 2,8 C 95 % 991,1 hPa 0,0 l/m 0 min 0 min 0 W/m 22,5 km/h (4 Bft) 53,49 %
28.01.2020 08:26 4,8 C 3,3 C 2,8 C 95 % 991,1 hPa 0,0 l/m 0 min 0 min 0 W/m 22,5 km/h (4 Bft) 97,87 %
28.01.2020 08:28 4,8 C 3,9 C 3,3 C 95 % 991,1 hPa 0,0 l/m 0 min 0 min 0 W/m 25,7 km/h (4 Bft) 97,87 %
28.01.2020 08:30 4,8 C 3,9 C 3,3 C 95 % 991,1 hPa 0,0 l/m 0 min 0 min 0 W/m 29,0 km/h (5 Bft) 100,00 %
28.01.2020 08:32 4,8 C 3,9 C 3,3 C 95 % 991,2 hPa 0,0 l/m 0 min 0 min 0 W/m 25,7 km/h (4 Bft) 100,00 %
28.01.2020 08:34 4,8 C 3,9 C 3,3 C 95 % 991,2 hPa 0,0 l/m 0 min 0 min 0 W/m 16,1 km/h (3 Bft) 100,00 %
28.01.2020 08:36 4,8 C 3,9 C 3,3 C 95 % 991,2 hPa 0,0 l/m 0 min 0 min 0 W/m 25,7 km/h (4 Bft) 97,87 %
28.01.2020 08:38 4,8 C 3,9 C 3,3 C 95 % 991,1 hPa 0,0 l/m 0 min 0 min 3 W/m 19,3 km/h (3 Bft) 97,87 %
28.01.2020 08:40 4,8 C 3,9 C 3,3 C 95 % 991,1 hPa 0,0 l/m 0 min 0 min 5 W/m 35,4 km/h (5 Bft) 95,74 %
28.01.2020 08:42 4,9 C 3,9 C 3,3 C 95 % 991,1 hPa 0,0 l/m 0 min 0 min 5 W/m 32,2 km/h (5 Bft) 95,74 %
28.01.2020 08:44 4,9 C 3,9 C 3,3 C 95 % 991,2 hPa 0,0 l/m 0 min 0 min 5 W/m 32,2 km/h (5 Bft) 97,83 %
28.01.2020 08:46 4,9 C 3,9 C 3,3 C 95 % 991,2 hPa 0,0 l/m 0 min 0 min 6 W/m 38,6 km/h (5 Bft) 97,87 %
28.01.2020 08:48 4,9 C 3,9 C 3,3 C 95 % 991,2 hPa 0,0 l/m 0 min 0 min 7 W/m 41,8 km/h (6 Bft) 97,87 %
28.01.2020 08:50 4,9 C 3,9 C 3,3 C 95 % 991,1 hPa 0,0 l/m 0 min 0 min 7 W/m 25,7 km/h (4 Bft) 97,87 %
28.01.2020 08:52 4,9 C 3,9 C 3,3 C 95 % 991,2 hPa 0,0 l/m 0 min 0 min 7 W/m 29,0 km/h (5 Bft) 95,74 %
28.01.2020 08:54 5,0 C 3,9 C 3,3 C 95 % 991,1 hPa 0,0 l/m 0 min 0 min 9 W/m 25,7 km/h (4 Bft) 97,87 %
28.01.2020 08:56 5,0 C 3,9 C 3,3 C 95 % 991,2 hPa 0,0 l/m 0 min 0 min 9 W/m 16,1 km/h (3 Bft) 97,83 %
28.01.2020 08:58 5,0 C 3,9 C 3,3 C 95 % 991,2 hPa 0,0 l/m 0 min 0 min 10 W/m 32,2 km/h (5 Bft) 95,74 %
28.01.2020 09:00 5,0 C 3,9 C 3,3 C 95 % 991,2 hPa 0,0 l/m 0 min 0 min 12 W/m 25,7 km/h (4 Bft) 91,49 %
28.01.2020 09:02 5,0 C 3,9 C 3,3 C 95 % 991,2 hPa 0,0 l/m 0 min 0 min 12 W/m 19,3 km/h (3 Bft) 91,49 %
28.01.2020 09:04 5,1 C 3,9 C 3,3 C 95 % 991,3 hPa 0,0 l/m 0 min 0 min 12 W/m 29,0 km/h (5 Bft) 93,62 %
28.01.2020 09:06 5,1 C 3,9 C 3,3 C 95 % 991,2 hPa 0,0 l/m 0 min 0 min 14 W/m 16,1 km/h (3 Bft) 93,62 %
28.01.2020 09:08 5,0 C 3,9 C 3,3 C 95 % 991,2 hPa 0,0 l/m 0 min 0 min 12 W/m 25,7 km/h (4 Bft) 93,48 %
28.01.2020 09:10 5,1 C 3,9 C 3,3 C 95 % 991,3 hPa 0,0 l/m 0 min 0 min 13 W/m 22,5 km/h (4 Bft) 89,36 %
28.01.2020 09:12 5,1 C 3,9 C 3,3 C 95 % 991,2 hPa 0,0 l/m 0 min 0 min 17 W/m 22,5 km/h (4 Bft) 93,62 %
28.01.2020 09:14 5,1 C 3,9 C 3,3 C 95 % 991,2 hPa 0,0 l/m 0 min 0 min 22 W/m 35,4 km/h (5 Bft) 93,62 %
28.01.2020 09:16 5,1 C 3,9 C 3,3 C 95 % 991,2 hPa 0,0 l/m 0 min 0 min 25 W/m 16,1 km/h (3 Bft) 93,62 %
28.01.2020 09:18 5,1 C 3,9 C 3,3 C 95 % 991,3 hPa 0,0 l/m 0 min 0 min 26 W/m 25,7 km/h (4 Bft) 89,13 %
28.01.2020 09:20 5,1 C 3,9 C 3,3 C 95 % 991,2 hPa 0,0 l/m 0 min 0 min 29 W/m 25,7 km/h (4 Bft) 93,62 %
28.01.2020 09:22 5,1 C 3,9 C 3,3 C 94 % 991,2 hPa 0,0 l/m 0 min 0 min 32 W/m 25,7 km/h (4 Bft) 93,62 %
28.01.2020 09:24 5,1 C 3,9 C 3,3 C 94 % 991,3 hPa 0,0 l/m 0 min 0 min 36 W/m 22,5 km/h (4 Bft) 93,62 %
28.01.2020 09:26 5,1 C 3,9 C 3,3 C 94 % 991,3 hPa 0,0 l/m 0 min 0 min 33 W/m 25,7 km/h (4 Bft) 95,74 %
28.01.2020 09:28 5,1 C 3,9 C 3,3 C 94 % 991,3 hPa 0,0 l/m 0 min 0 min 26 W/m 16,1 km/h (3 Bft) 93,62 %
28.01.2020 09:30 5,1 C 4,4 C 3,3 C 94 % 991,4 hPa 0,0 l/m 0 min 0 min 28 W/m 25,7 km/h (4 Bft) 93,48 %
28.01.2020 09:32 5,1 C 4,4 C 3,3 C 94 % 991,5 hPa 0,0 l/m 0 min 0 min 35 W/m 25,7 km/h (4 Bft) 95,74 %
28.01.2020 09:34 5,2 C 4,4 C 3,3 C 94 % 991,4 hPa 0,0 l/m 0 min 0 min 43 W/m 19,3 km/h (3 Bft) 95,74 %
28.01.2020 09:36 5,2 C 4,4 C 3,3 C 94 % 991,3 hPa 0,0 l/m 0 min 0 min 46 W/m 51,5 km/h (7 Bft) 93,62 %
28.01.2020 09:38 5,2 C 4,4 C 3,3 C 94 % 991,6 hPa 0,0 l/m 0 min 0 min 44 W/m 25,7 km/h (4 Bft) 89,36 %
28.01.2020 09:40 5,2 C 4,4 C 3,9 C 94 % 991,4 hPa 0,0 l/m 0 min 0 min 42 W/m 19,3 km/h (3 Bft) 95,74 %
28.01.2020 09:42 5,2 C 4,4 C 3,9 C 94 % 991,4 hPa 0,0 l/m 0 min 0 min 42 W/m 16,1 km/h (3 Bft) 95,65 %
28.01.2020 09:44 5,2 C 4,4 C 3,3 C 94 % 991,4 hPa 0,0 l/m 0 min 0 min 45 W/m 45,1 km/h (6 Bft) 97,87 %
28.01.2020 09:46 5,2 C 4,4 C 3,3 C 94 % 991,5 hPa 0,0 l/m 0 min 0 min 47 W/m 16,1 km/h (3 Bft) 97,87 %
28.01.2020 09:48 5,2 C 4,4 C 3,3 C 93 % 991,5 hPa 0,0 l/m 0 min 0 min 47 W/m 19,3 km/h (3 Bft) 97,87 %
28.01.2020 09:50 5,2 C 4,4 C 3,3 C 94 % 991,4 hPa 0,0 l/m 0 min 0 min 46 W/m 29,0 km/h (5 Bft) 95,74 %
28.01.2020 09:52 5,3 C 4,4 C 3,9 C 93 % 991,5 hPa 0,0 l/m 0 min 0 min 40 W/m 19,3 km/h (3 Bft) 95,74 %
28.01.2020 09:54 5,3 C 4,4 C 3,9 C 93 % 991,5 hPa 0,0 l/m 0 min 0 min 40 W/m 29,0 km/h (5 Bft) 97,83 %
28.01.2020 09:56 5,3 C 4,4 C 3,9 C 93 % 991,5 hPa 0,0 l/m 0 min 0 min 35 W/m 16,1 km/h (3 Bft) 97,87 %
28.01.2020 09:58 5,3 C 4,4 C 3,9 C 93 % 991,6 hPa 0,0 l/m 0 min 0 min 31 W/m 19,3 km/h (3 Bft) 100,00 %
28.01.2020 10:00 5,3 C 4,4 C 3,9 C 93 % 991,7 hPa 0,0 l/m 0 min 0 min 28 W/m 19,3 km/h (3 Bft) 100,00 %
28.01.2020 10:02 5,3 C 4,4 C 3,9 C 93 % 991,6 hPa 0,0 l/m 0 min 0 min 34 W/m 25,7 km/h (4 Bft) 97,87 %
28.01.2020 10:04 5,3 C 4,4 C 3,9 C 93 % 991,7 hPa 0,0 l/m 0 min 0 min 33 W/m 19,3 km/h (3 Bft) 100,00 %
28.01.2020 10:06 5,3 C 4,4 C 3,9 C 93 % 991,8 hPa 0,0 l/m 0 min 0 min 35 W/m 32,2 km/h (5 Bft) 100,00 %
28.01.2020 10:08 5,3 C 4,4 C 3,3 C 92 % 991,8 hPa 0,0 l/m 0 min 0 min 37 W/m 25,7 km/h (4 Bft) 97,87 %
28.01.2020 10:10 5,3 C 4,4 C 3,9 C 93 % 991,8 hPa 0,0 l/m 0 min 0 min 43 W/m 29,0 km/h (5 Bft) 100,00 %
28.01.2020 10:12 5,3 C 4,4 C 3,9 C 92 % 991,8 hPa 0,0 l/m 0 min 0 min 47 W/m 35,4 km/h (5 Bft) 100,00 %
28.01.2020 10:14 5,3 C 4,4 C 3,9 C 92 % 991,8 hPa 0,0 l/m 0 min 0 min 43 W/m 38,6 km/h (5 Bft) 100,00 %
28.01.2020 10:16 5,3 C 4,4 C 3,3 C 92 % 991,9 hPa 0,0 l/m 0 min 0 min 41 W/m 22,5 km/h (4 Bft) 97,87 %
28.01.2020 10:18 5,3 C 4,4 C 3,3 C 91 % 991,9 hPa 0,0 l/m 0 min 0 min 47 W/m 16,1 km/h (3 Bft) 97,87 %
28.01.2020 10:20 5,3 C 4,4 C 3,3 C 91 % 991,9 hPa 0,0 l/m 0 min 0 min 48 W/m 38,6 km/h (5 Bft) 100,00 %
28.01.2020 10:22 5,3 C 4,4 C 3,3 C 91 % 992,0 hPa 0,0 l/m 0 min 0 min 44 W/m 25,7 km/h (4 Bft) 100,00 %
28.01.2020 10:24 5,3 C 5,0 C 3,3 C 91 % 992,0 hPa 0,0 l/m 0 min 0 min 45 W/m 29,0 km/h (5 Bft) 100,00 %
28.01.2020 10:28 5,3 C 5,0 C 3,3 C 91 % 992,3 hPa 0,0 l/m 0 min 0 min 52 W/m 22,5 km/h (4 Bft) 100,00 %
28.01.2020 10:29 5,3 C 5,0 C 3,3 C 91 % 992,3 hPa 0,0 l/m 0 min 0 min 49 W/m 19,3 km/h (3 Bft) 100,00 %
28.01.2020 10:30 5,3 C 5,0 C 3,3 C 91 % 992,3 hPa 0,0 l/m 0 min 0 min 47 W/m 25,7 km/h (4 Bft) 100,00 %
28.01.2020 10:32 5,3 C 5,0 C 3,3 C 90 % 992,3 hPa 0,0 l/m 0 min 0 min 41 W/m 35,4 km/h (5 Bft) 100,00 %
28.01.2020 10:35 5,3 C 5,0 C 3,3 C 90 % 992,3 hPa 0,0 l/m 0 min 0 min 37 W/m 38,6 km/h (5 Bft) 100,00 %
28.01.2020 10:36 5,3 C 5,0 C 3,3 C 90 % 992,3 hPa 0,0 l/m 0 min 0 min 37 W/m 38,6 km/h (5 Bft) 100,00 %
28.01.2020 10:38 5,3 C 5,0 C 3,3 C 90 % 992,4 hPa 0,0 l/m 0 min 0 min 35 W/m 38,6 km/h (5 Bft) 98,51 %
28.01.2020 10:40 5,3 C 5,0 C 3,3 C 90 % 992,5 hPa 0,0 l/m 0 min 0 min 34 W/m 29,0 km/h (5 Bft) 100,00 %
28.01.2020 10:42 5,2 C 5,0 C 3,3 C 90 % 992,5 hPa 0,0 l/m 0 min 0 min 37 W/m 22,5 km/h (4 Bft) 100,00 %
28.01.2020 10:44 5,2 C 5,0 C 3,3 C 89 % 992,5 hPa 0,0 l/m 0 min 0 min 38 W/m 35,4 km/h (5 Bft) 97,87 %
28.01.2020 10:46 5,2 C 5,0 C 3,3 C 89 % 992,6 hPa 0,0 l/m 0 min 0 min 43 W/m 32,2 km/h (5 Bft) 100,00 %
28.01.2020 10:48 5,2 C 5,0 C 3,3 C 89 % 992,7 hPa 0,0 l/m 0 min 0 min 50 W/m 25,7 km/h (4 Bft) 100,00 %
28.01.2020 10:50 5,2 C 5,0 C 3,3 C 89 % 992,8 hPa 0,0 l/m 0 min 0 min 53 W/m 22,5 km/h (4 Bft) 100,00 %
28.01.2020 10:52 5,2 C 5,0 C 3,3 C 89 % 992,9 hPa 0,0 l/m 0 min 0 min 54 W/m 19,3 km/h (3 Bft) 100,00 %
28.01.2020 10:54 5,2 C 5,0 C 3,3 C 89 % 992,9 hPa 0,0 l/m 0 min 0 min 50 W/m 22,5 km/h (4 Bft) 100,00 %
28.01.2020 10:56 5,2 C 5,0 C 3,3 C 89 % 992,9 hPa 0,0 l/m 0 min 0 min 51 W/m 19,3 km/h (3 Bft) 97,87 %
28.01.2020 10:58 5,2 C 5,0 C 3,3 C 89 % 993,0 hPa 0,0 l/m 0 min 0 min 61 W/m 38,6 km/h (5 Bft) 100,00 %
28.01.2020 11:00 5,2 C 5,0 C 3,3 C 89 % 993,0 hPa 0,0 l/m 0 min 0 min 80 W/m 35,4 km/h (5 Bft) 100,00 %
28.01.2020 11:02 5,2 C 5,0 C 3,3 C 89 % 993,2 hPa 0,0 l/m 0 min 0 min 70 W/m 35,4 km/h (5 Bft) 100,00 %
28.01.2020 11:04 5,2 C 5,0 C 3,3 C 89 % 993,1 hPa 0,0 l/m 0 min 0 min 62 W/m 35,4 km/h (5 Bft) 97,96 %
28.01.2020 11:06 5,2 C 5,0 C 3,3 C 89 % 993,1 hPa 0,0 l/m 0 min 0 min 69 W/m 35,4 km/h (5 Bft) 95,74 %
28.01.2020 11:08 5,1 C 5,0 C 3,3 C 88 % 993,2 hPa 0,0 l/m 0 min 0 min 62 W/m 22,5 km/h (4 Bft) 100,00 %
28.01.2020 11:10 5,1 C 4,4 C 3,3 C 88 % 993,2 hPa 0,0 l/m 0 min 2 min 64 W/m 22,5 km/h (4 Bft) 100,00 %
28.01.2020 11:12 5,1 C 4,4 C 3,3 C 89 % 993,2 hPa 0,0 l/m 0 min 2 min 62 W/m 32,2 km/h (5 Bft) 100,00 %
28.01.2020 11:14 5,1 C 4,4 C 3,3 C 89 % 993,4 hPa 0,0 l/m 0 min 2 min 64 W/m 35,4 km/h (5 Bft) 97,87 %
28.01.2020 11:16 5,1 C 3,9 C 3,3 C 89 % 993,4 hPa 0,0 l/m 0 min 2 min 52 W/m 22,5 km/h (4 Bft) 100,00 %
28.01.2020 11:18 5,1 C 3,9 C 2,8 C 89 % 993,5 hPa 0,0 l/m 0 min 2 min 45 W/m 29,0 km/h (5 Bft) 100,00 %
28.01.2020 11:20 5,1 C 3,9 C 2,8 C 89 % 993,5 hPa 0,0 l/m 0 min 2 min 46 W/m 29,0 km/h (5 Bft) 100,00 %
28.01.2020 11:22 5,1 C 3,9 C 2,8 C 89 % 993,5 hPa 0,0 l/m 0 min 2 min 59 W/m 19,3 km/h (3 Bft) 95,83 %
28.01.2020 11:24 5,0 C 3,9 C 2,8 C 89 % 993,5 hPa 0,0 l/m 0 min 2 min 68 W/m 29,0 km/h (5 Bft) 97,92 %
28.01.2020 11:26 5,0 C 3,9 C 2,8 C 89 % 993,5 hPa 0,0 l/m 0 min 2 min 67 W/m 19,3 km/h (3 Bft) 97,92 %
28.01.2020 11:28 5,0 C 4,4 C 3,3 C 90 % 993,6 hPa 0,0 l/m 0 min 2 min 61 W/m 19,3 km/h (3 Bft) 97,87 %
28.01.2020 11:30 4,9 C 4,4 C 3,3 C 89 % 993,5 hPa 0,0 l/m 0 min 2 min 59 W/m 41,8 km/h (6 Bft) 97,87 %
28.01.2020 11:32 4,9 C 4,4 C 3,3 C 89 % 993,5 hPa 0,0 l/m 0 min 2 min 87 W/m 35,4 km/h (5 Bft) 97,87 %
28.01.2020 11:34 4,9 C 4,4 C 3,3 C 90 % 993,6 hPa 0,0 l/m 0 min 2 min 89 W/m 45,1 km/h (6 Bft) 97,87 %
28.01.2020 11:36 4,9 C 4,4 C 3,3 C 89 % 993,7 hPa 0,0 l/m 0 min 2 min 83 W/m 35,4 km/h (5 Bft) 95,65 %
28.01.2020 11:38 4,9 C 4,4 C 3,3 C 90 % 993,5 hPa 0,0 l/m 0 min 2 min 83 W/m 35,4 km/h (5 Bft) 95,24 %
28.01.2020 11:40 4,9 C 5,0 C 3,3 C 89 % 993,7 hPa 0,0 l/m 0 min 2 min 119 W/m 38,6 km/h (5 Bft) 93,75 %
28.01.2020 11:42 5,0 C 5,0 C 3,3 C 90 % 993,7 hPa 0,0 l/m 0 min 2 min 99 W/m 22,5 km/h (4 Bft) 95,65 %
28.01.2020 11:44 5,0 C 5,0 C 3,3 C 90 % 993,7 hPa 0,0 l/m 0 min 0 min 104 W/m 48,3 km/h (6 Bft) 95,83 %
28.01.2020 11:46 5,1 C 5,0 C 3,3 C 90 % 993,7 hPa 0,0 l/m 0 min 0 min 62 W/m 38,6 km/h (5 Bft) 93,62 %
28.01.2020 11:48 5,1 C 4,4 C 3,3 C 90 % 993,8 hPa 0,0 l/m 0 min 2 min 41 W/m 25,7 km/h (4 Bft) 93,75 %
28.01.2020 11:50 5,1 C 4,4 C 3,3 C 89 % 993,8 hPa 0,0 l/m 0 min 2 min 41 W/m 29,0 km/h (5 Bft) 95,83 %
28.01.2020 11:52 5,1 C 4,4 C 3,3 C 89 % 993,8 hPa 0,0 l/m 0 min 2 min 52 W/m 29,0 km/h (5 Bft) 93,62 %
28.01.2020 11:54 5,1 C 4,4 C 3,3 C 89 % 994,0 hPa 0,0 l/m 0 min 0 min 44 W/m 32,2 km/h (5 Bft) 93,75 %
28.01.2020 11:56 5,1 C 5,0 C 3,3 C 89 % 993,9 hPa 0,0 l/m 0 min 0 min 62 W/m 35,4 km/h (5 Bft) 95,74 %
28.01.2020 11:58 5,1 C 5,0 C 3,3 C 89 % 993,9 hPa 0,0 l/m 0 min 0 min 94 W/m 29,0 km/h (5 Bft) 95,65 %
28.01.2020 12:00 5,1 C 4,4 C 3,3 C 89 % 994,0 hPa 0,0 l/m 0 min 2 min 96 W/m 29,0 km/h (5 Bft) 93,62 %
28.01.2020 12:02 5,1 C 3,9 C 3,3 C 89 % 994,0 hPa 0,0 l/m 0 min 2 min 61 W/m 35,4 km/h (5 Bft) 93,18 %
28.01.2020 12:04 5,1 C 3,3 C 2,8 C 89 % 994,1 hPa 0,0 l/m 0 min 2 min 51 W/m 54,7 km/h (7 Bft) 95,92 %
28.01.2020 12:06 5,1 C 3,3 C 2,8 C 89 % 994,1 hPa 0,2 l/m 0 min 2 min 53 W/m 22,5 km/h (4 Bft) 97,92 %
28.01.2020 12:08 5,1 C 3,3 C 2,8 C 90 % 994,2 hPa 0,0 l/m 0 min 2 min 70 W/m 35,4 km/h (5 Bft) 95,74 %
28.01.2020 12:10 5,0 C 3,3 C 2,8 C 90 % 994,2 hPa 0,0 l/m 0 min 2 min 76 W/m 35,4 km/h (5 Bft) 95,65 %
28.01.2020 12:12 5,0 C 3,3 C 2,8 C 90 % 994,3 hPa 0,0 l/m 0 min 2 min 85 W/m 25,7 km/h (4 Bft) 93,62 %
28.01.2020 12:14 4,9 C 3,3 C 2,8 C 90 % 994,3 hPa 0,0 l/m 0 min 2 min 80 W/m 19,3 km/h (3 Bft) 97,87 %
28.01.2020 12:16 4,9 C 3,3 C 2,8 C 91 % 994,3 hPa 0,0 l/m 0 min 2 min 68 W/m 19,3 km/h (3 Bft) 97,87 %
28.01.2020 12:18 4,9 C 3,3 C 2,8 C 91 % 994,4 hPa 0,0 l/m 0 min 2 min 43 W/m 22,5 km/h (4 Bft) 100,00 %
28.01.2020 12:20 4,8 C 3,3 C 2,8 C 91 % 994,4 hPa 0,0 l/m 0 min 2 min 43 W/m 22,5 km/h (4 Bft) 97,87 %
28.01.2020 12:22 4,8 C 3,3 C 2,8 C 91 % 994,4 hPa 0,2 l/m 0 min 2 min 50 W/m 12,9 km/h (3 Bft) 97,83 %
28.01.2020 12:24 4,8 C 3,3 C 2,8 C 92 % 994,4 hPa 0,0 l/m 0 min 2 min 44 W/m 22,5 km/h (4 Bft) 90,48 %
28.01.2020 12:26 4,7 C 3,3 C 2,8 C 92 % 994,4 hPa 0,2 l/m 0 min 2 min 36 W/m 19,3 km/h (3 Bft) 97,92 %
28.01.2020 12:28 4,7 C 3,3 C 2,8 C 92 % 994,6 hPa 0,0 l/m 0 min 2 min 36 W/m 22,5 km/h (4 Bft) 97,87 %
28.01.2020 12:30 4,7 C 2,8 C 2,8 C 92 % 994,5 hPa 0,2 l/m 0 min 2 min 24 W/m 29,0 km/h (5 Bft) 97,92 %
28.01.2020 12:32 4,6 C 2,8 C 2,2 C 92 % 994,7 hPa 0,2 l/m 0 min 2 min 24 W/m 25,7 km/h (4 Bft) 93,62 %
28.01.2020 12:34 4,4 C 2,8 C 2,2 C 92 % 994,6 hPa 0,2 l/m 0 min 2 min 41 W/m 19,3 km/h (3 Bft) 97,92 %
28.01.2020 12:36 4,3 C 2,8 C 2,2 C 92 % 994,6 hPa 0,0 l/m 0 min 2 min 44 W/m 12,9 km/h (3 Bft) 97,87 %
28.01.2020 12:38 4,3 C 2,8 C 2,2 C 92 % 994,8 hPa 0,2 l/m 0 min 2 min 45 W/m 16,1 km/h (3 Bft) 95,83 %
28.01.2020 12:40 4,2 C 2,8 C 2,2 C 93 % 994,6 hPa 0,0 l/m 0 min 2 min 75 W/m 16,1 km/h (3 Bft) 97,87 %
28.01.2020 12:42 4,2 C 3,3 C 2,8 C 93 % 994,6 hPa 0,0 l/m 0 min 2 min 100 W/m 25,7 km/h (4 Bft) 97,87 %
28.01.2020 12:44 4,2 C 3,3 C 2,8 C 93 % 994,6 hPa 0,0 l/m 0 min 2 min 111 W/m 19,3 km/h (3 Bft) 97,83 %
28.01.2020 12:46 4,3 C 3,9 C 2,8 C 93 % 994,6 hPa 0,0 l/m 0 min 0 min 155 W/m 41,8 km/h (6 Bft) 95,74 %
28.01.2020 12:48 4,3 C 3,9 C 3,3 C 94 % 994,6 hPa 0,0 l/m 0 min 0 min 152 W/m 12,9 km/h (3 Bft) 97,87 %
28.01.2020 12:50 4,3 C 4,4 C 3,3 C 94 % 994,7 hPa 0,0 l/m 0 min 0 min 142 W/m 22,5 km/h (4 Bft) 95,74 %
28.01.2020 12:52 4,4 C 4,4 C 3,3 C 94 % 994,7 hPa 0,0 l/m 2 min 0 min 206 W/m 19,3 km/h (3 Bft) 97,87 %
28.01.2020 12:54 4,4 C 5,6 C 3,9 C 94 % 994,6 hPa 0,0 l/m 2 min 0 min 207 W/m 19,3 km/h (3 Bft) 97,87 %
28.01.2020 12:56 4,6 C 5,0 C 3,9 C 94 % 994,6 hPa 0,0 l/m 2 min 0 min 207 W/m 38,6 km/h (5 Bft) 95,65 %
28.01.2020 12:58 4,7 C 5,6 C 3,9 C 94 % 994,7 hPa 0,0 l/m 2 min 0 min 230 W/m 22,5 km/h (4 Bft) 97,73 %
28.01.2020 13:00 4,8 C 6,1 C 3,9 C 94 % 994,7 hPa 0,0 l/m 2 min 0 min 255 W/m 19,3 km/h (3 Bft) 100,00 %
28.01.2020 13:02 4,8 C 5,0 C 3,9 C 94 % 994,7 hPa 0,0 l/m 2 min 0 min 228 W/m 16,1 km/h (3 Bft) 48,72 %
28.01.2020 13:04 4,9 C 5,0 C 3,9 C 94 % 994,8 hPa 0,0 l/m 0 min 0 min 132 W/m 16,1 km/h (3 Bft) 98,00 %
28.01.2020 13:06 5,0 C 5,0 C 3,9 C 94 % 994,6 hPa 0,0 l/m 0 min 0 min 167 W/m 35,4 km/h (5 Bft) 97,87 %
28.01.2020 13:08 5,0 C 4,4 C 3,9 C 94 % 994,9 hPa 0,0 l/m 0 min 0 min 164 W/m 38,6 km/h (5 Bft) 93,62 %
28.01.2020 13:10 5,1 C 4,4 C 3,9 C 93 % 994,9 hPa 0,0 l/m 0 min 0 min 131 W/m 35,4 km/h (5 Bft) 97,83 %
28.01.2020 13:12 5,1 C 4,4 C 3,3 C 92 % 994,7 hPa 0,0 l/m 0 min 0 min 93 W/m 29,0 km/h (5 Bft) 97,87 %
28.01.2020 13:14 5,2 C 4,4 C 3,3 C 92 % 994,9 hPa 0,0 l/m 0 min 0 min 82 W/m 19,3 km/h (3 Bft) 95,74 %
28.01.2020 13:16 5,2 C 4,4 C 3,3 C 90 % 994,8 hPa 0,0 l/m 0 min 0 min 88 W/m 54,7 km/h (7 Bft) 100,00 %
28.01.2020 13:18 5,2 C 4,4 C 3,3 C 90 % 994,8 hPa 0,0 l/m 0 min 2 min 101 W/m 32,2 km/h (5 Bft) 97,92 %
28.01.2020 13:20 5,2 C 5,6 C 3,9 C 89 % 994,9 hPa 0,0 l/m 0 min 0 min 163 W/m 19,3 km/h (3 Bft) 100,00 %
28.01.2020 13:22 5,3 C 5,6 C 3,9 C 89 % 995,0 hPa 0,0 l/m 2 min 0 min 216 W/m 32,2 km/h (5 Bft) 100,00 %
28.01.2020 13:24 5,4 C 6,1 C 3,9 C 88 % 994,9 hPa 0,0 l/m 2 min 0 min 337 W/m 29,0 km/h (5 Bft) 100,00 %
28.01.2020 13:26 5,6 C 7,2 C 4,4 C 88 % 994,9 hPa 0,0 l/m 2 min 0 min 405 W/m 32,2 km/h (5 Bft) 97,87 %
28.01.2020 13:28 5,7 C 6,1 C 4,4 C 88 % 995,0 hPa 0,0 l/m 2 min 0 min 417 W/m 41,8 km/h (6 Bft) 97,87 %
28.01.2020 13:30 5,8 C 5,6 C 3,9 C 87 % 995,0 hPa 0,0 l/m 2 min 0 min 309 W/m 54,7 km/h (7 Bft) 100,00 %
28.01.2020 13:32 5,8 C 5,6 C 3,9 C 87 % 995,0 hPa 0,0 l/m 2 min 0 min 208 W/m 48,3 km/h (6 Bft) 100,00 %
28.01.2020 13:34 5,9 C 5,0 C 3,9 C 86 % 995,1 hPa 0,0 l/m 0 min 0 min 159 W/m 38,6 km/h (5 Bft) 100,00 %
28.01.2020 13:36 5,9 C 5,0 C 3,9 C 86 % 995,1 hPa 0,0 l/m 0 min 0 min 120 W/m 29,0 km/h (5 Bft) 100,00 %
28.01.2020 13:38 5,9 C 5,0 C 3,9 C 85 % 995,1 hPa 0,0 l/m 0 min 0 min 155 W/m 32,2 km/h (5 Bft) 100,00 %
28.01.2020 13:40 5,9 C 5,0 C 3,9 C 84 % 995,2 hPa 0,0 l/m 0 min 0 min 151 W/m 41,8 km/h (6 Bft) 100,00 %
28.01.2020 13:42 5,9 C 5,0 C 3,9 C 84 % 995,3 hPa 0,0 l/m 0 min 0 min 147 W/m 25,7 km/h (4 Bft) 100,00 %
28.01.2020 13:44 5,9 C 5,0 C 3,9 C 84 % 995,3 hPa 0,0 l/m 0 min 0 min 138 W/m 48,3 km/h (6 Bft) 100,00 %
28.01.2020 13:46 5,9 C 5,0 C 3,9 C 83 % 995,2 hPa 0,0 l/m 0 min 0 min 160 W/m 25,7 km/h (4 Bft) 100,00 %
28.01.2020 13:48 5,9 C 4,4 C 3,9 C 83 % 995,4 hPa 0,0 l/m 0 min 0 min 94 W/m 25,7 km/h (4 Bft) 100,00 %
28.01.2020 13:50 5,9 C 4,4 C 3,9 C 83 % 995,4 hPa 0,0 l/m 0 min 0 min 73 W/m 35,4 km/h (5 Bft) 100,00 %
28.01.2020 13:52 5,9 C 4,4 C 3,9 C 83 % 995,4 hPa 0,0 l/m 0 min 0 min 66 W/m 22,5 km/h (4 Bft) 100,00 %
28.01.2020 13:54 5,9 C 4,4 C 3,9 C 83 % 995,4 hPa 0,0 l/m 0 min 0 min 59 W/m 32,2 km/h (5 Bft) 100,00 %
28.01.2020 13:56 5,8 C 4,4 C 3,3 C 82 % 995,5 hPa 0,0 l/m 0 min 0 min 66 W/m 29,0 km/h (5 Bft) 97,83 %
28.01.2020 13:58 5,8 C 4,4 C 3,9 C 82 % 995,5 hPa 0,0 l/m 0 min 0 min 89 W/m 25,7 km/h (4 Bft) 100,00 %
28.01.2020 14:00 5,8 C 4,4 C 3,9 C 82 % 995,5 hPa 0,0 l/m 0 min 0 min 82 W/m 29,0 km/h (5 Bft) 100,00 %
28.01.2020 14:02 5,8 C 4,4 C 3,9 C 82 % 995,6 hPa 0,0 l/m 0 min 0 min 107 W/m 19,3 km/h (3 Bft) 100,00 %
28.01.2020 14:04 5,8 C 5,0 C 3,9 C 82 % 995,7 hPa 0,0 l/m 0 min 0 min 121 W/m 16,1 km/h (3 Bft) 100,00 %
28.01.2020 14:06 5,8 C 4,4 C 3,9 C 82 % 995,7 hPa 0,0 l/m 0 min 0 min 75 W/m 25,7 km/h (4 Bft) 100,00 %
28.01.2020 14:08 5,8 C 4,4 C 3,9 C 82 % 995,9 hPa 0,0 l/m 0 min 2 min 33 W/m 19,3 km/h (3 Bft) 95,74 %
28.01.2020 14:10 5,8 C 3,9 C 3,3 C 83 % 996,1 hPa 0,0 l/m 0 min 2 min 26 W/m 22,5 km/h (4 Bft) 97,87 %
28.01.2020 14:12 5,7 C 3,3 C 2,8 C 83 % 996,1 hPa 0,0 l/m 0 min 2 min 52 W/m 38,6 km/h (5 Bft) 95,74 %
28.01.2020 14:14 5,6 C 2,8 C 2,2 C 84 % 996,2 hPa 0,2 l/m 0 min 2 min 47 W/m 35,4 km/h (5 Bft) 95,74 %
28.01.2020 14:16 5,4 C 2,8 C 2,2 C 84 % 996,4 hPa 0,2 l/m 0 min 2 min 34 W/m 22,5 km/h (4 Bft) 95,74 %
28.01.2020 14:18 5,3 C 2,8 C 2,2 C 85 % 996,3 hPa 0,0 l/m 0 min 2 min 88 W/m 16,1 km/h (3 Bft) 95,12 %
28.01.2020 14:21 5,1 C 2,8 C 2,2 C 86 % 996,3 hPa 0,0 l/m 0 min 0 min 90 W/m 19,3 km/h (3 Bft) 98,61 %
28.01.2020 14:22 4,9 C 2,8 C 2,2 C 87 % 996,3 hPa 0,0 l/m 0 min 1 min 47 W/m 16,1 km/h (3 Bft) 95,83 %
28.01.2020 14:24 4,8 C 2,2 C 2,2 C 87 % 996,4 hPa 0,0 l/m 0 min 2 min 22 W/m 22,5 km/h (4 Bft) 97,87 %
28.01.2020 14:26 4,7 C 2,2 C 1,7 C 87 % 996,6 hPa 0,2 l/m 0 min 2 min 20 W/m 16,1 km/h (3 Bft) 93,75 %
28.01.2020 14:28 4,5 C 2,2 C 1,7 C 88 % 996,5 hPa 0,2 l/m 0 min 2 min 77 W/m 22,5 km/h (4 Bft) 95,83 %
28.01.2020 14:30 4,4 C 2,2 C 1,7 C 88 % 996,5 hPa 0,0 l/m 0 min 2 min 124 W/m 19,3 km/h (3 Bft) 95,74 %
28.01.2020 14:32 4,3 C 2,2 C 2,2 C 89 % 996,6 hPa 0,0 l/m 0 min 0 min 125 W/m 19,3 km/h (3 Bft) 91,49 %
28.01.2020 14:34 4,2 C 2,8 C 2,2 C 89 % 996,5 hPa 0,2 l/m 0 min 0 min 103 W/m 22,5 km/h (4 Bft) 95,74 %
28.01.2020 14:36 4,2 C 2,8 C 2,2 C 90 % 996,6 hPa 0,0 l/m 0 min 0 min 88 W/m 19,3 km/h (3 Bft) 91,49 %
28.01.2020 14:38 4,1 C 2,8 C 2,2 C 90 % 996,7 hPa 0,0 l/m 0 min 0 min 77 W/m 35,4 km/h (5 Bft) 95,74 %
28.01.2020 14:42 4,1 C 2,8 C 2,2 C 91 % 996,8 hPa 0,0 l/m 0 min 0 min 70 W/m 16,1 km/h (3 Bft) 94,83 %
28.01.2020 14:44 4,1 C 2,8 C 2,2 C 91 % 996,8 hPa 0,0 l/m 0 min 0 min 67 W/m 12,9 km/h (3 Bft) 95,65 %
28.01.2020 14:46 4,1 C 2,8 C 2,8 C 91 % 996,8 hPa 0,0 l/m 0 min 0 min 63 W/m 19,3 km/h (3 Bft) 94,74 %
28.01.2020 14:48 4,1 C 2,8 C 2,8 C 91 % 996,9 hPa 0,0 l/m 0 min 0 min 62 W/m 19,3 km/h (3 Bft) 93,88 %
28.01.2020 14:50 4,1 C 2,8 C 2,8 C 92 % 996,9 hPa 0,0 l/m 0 min 0 min 59 W/m 16,1 km/h (3 Bft) 95,83 %
28.01.2020 14:52 4,1 C 2,8 C 2,8 C 92 % 996,9 hPa 0,0 l/m 0 min 0 min 55 W/m 19,3 km/h (3 Bft) 95,83 %
28.01.2020 14:54 4,1 C 3,3 C 2,8 C 92 % 996,9 hPa 0,0 l/m 0 min 0 min 54 W/m 16,1 km/h (3 Bft) 95,35 %
28.01.2020 14:56 4,1 C 3,3 C 2,8 C 92 % 996,9 hPa 0,0 l/m 0 min 0 min 62 W/m 16,1 km/h (3 Bft) 94,00 %
28.01.2020 14:58 4,1 C 3,3 C 2,8 C 92 % 997,0 hPa 0,0 l/m 0 min 0 min 74 W/m 25,7 km/h (4 Bft) 97,56 %
28.01.2020 15:00 4,1 C 4,4 C 2,8 C 92 % 997,0 hPa 0,0 l/m 2 min 0 min 144 W/m 29,0 km/h (5 Bft) 98,18 %
28.01.2020 15:02 4,2 C 5,6 C 2,8 C 92 % 996,9 hPa 0,0 l/m 2 min 0 min 305 W/m 22,5 km/h (4 Bft) 96,00 %
28.01.2020 15:04 4,3 C 6,1 C 3,3 C 92 % 997,0 hPa 0,0 l/m 2 min 0 min 304 W/m 16,1 km/h (3 Bft) 100,00 %
28.01.2020 15:06 4,3 C 6,1 C 3,3 C 91 % 997,1 hPa 0,0 l/m 2 min 0 min 293 W/m 22,5 km/h (4 Bft) 96,00 %
28.01.2020 15:08 4,4 C 6,1 C 3,3 C 92 % 997,0 hPa 0,0 l/m 2 min 0 min 277 W/m 16,1 km/h (3 Bft) 97,96 %
28.01.2020 15:10 4,5 C 6,1 C 3,3 C 92 % 997,1 hPa 0,0 l/m 2 min 0 min 258 W/m 25,7 km/h (4 Bft) 98,00 %
28.01.2020 15:12 4,6 C 6,1 C 2,8 C 91 % 997,1 hPa 0,0 l/m 2 min 0 min 244 W/m 22,5 km/h (4 Bft) 94,59 %
28.01.2020 15:14 4,6 C 6,1 C 2,8 C 91 % 997,2 hPa 0,0 l/m 2 min 0 min 234 W/m 22,5 km/h (4 Bft) 100,00 %
28.01.2020 15:16 4,6 C 5,6 C 2,8 C 91 % 997,1 hPa 0,0 l/m 2 min 0 min 229 W/m 16,1 km/h (3 Bft) 97,92 %
28.01.2020 15:18 4,6 C 5,0 C 2,8 C 91 % 997,1 hPa 0,0 l/m 2 min 0 min 221 W/m 25,7 km/h (4 Bft) 100,00 %
28.01.2020 15:20 4,7 C 4,4 C 2,8 C 91 % 997,2 hPa 0,0 l/m 2 min 0 min 242 W/m 12,9 km/h (3 Bft) 100,00 %
28.01.2020 15:22 4,7 C 4,4 C 3,3 C 91 % 997,2 hPa 0,0 l/m 2 min 0 min 255 W/m 19,3 km/h (3 Bft) 97,37 %
28.01.2020 15:24 4,7 C 3,9 C 3,3 C 91 % 997,2 hPa 0,0 l/m 2 min 0 min 189 W/m 16,1 km/h (3 Bft) 97,87 %
28.01.2020 15:26 4,7 C 4,4 C 3,3 C 91 % 997,2 hPa 0,0 l/m 2 min 0 min 140 W/m 19,3 km/h (3 Bft) 98,00 %
28.01.2020 15:28 4,7 C 4,4 C 3,3 C 91 % 997,2 hPa 0,0 l/m 2 min 0 min 150 W/m 19,3 km/h (3 Bft) 97,96 %
28.01.2020 15:30 4,8 C 4,4 C 3,3 C 91 % 997,3 hPa 0,0 l/m 2 min 0 min 172 W/m 19,3 km/h (3 Bft) 97,87 %
28.01.2020 15:32 4,8 C 4,4 C 3,3 C 91 % 997,3 hPa 0,0 l/m 2 min 0 min 180 W/m 16,1 km/h (3 Bft) 97,83 %
28.01.2020 15:34 4,8 C 4,4 C 3,3 C 91 % 997,3 hPa 0,0 l/m 2 min 0 min 153 W/m 12,9 km/h (3 Bft) 97,87 %
28.01.2020 15:36 4,9 C 4,4 C 3,9 C 91 % 997,4 hPa 0,0 l/m 2 min 0 min 161 W/m 16,1 km/h (3 Bft) 97,87 %
28.01.2020 15:38 4,9 C 4,4 C 3,3 C 91 % 997,4 hPa 0,0 l/m 2 min 0 min 144 W/m 16,1 km/h (3 Bft) 97,87 %
28.01.2020 15:40 4,9 C 4,4 C 3,3 C 91 % 997,5 hPa 0,0 l/m 0 min 0 min 83 W/m 16,1 km/h (3 Bft) 97,87 %
28.01.2020 15:42 4,9 C 3,9 C 3,3 C 90 % 997,5 hPa 0,0 l/m 0 min 0 min 62 W/m 29,0 km/h (5 Bft) 97,87 %
28.01.2020 15:44 4,9 C 3,9 C 3,3 C 90 % 997,6 hPa 0,0 l/m 0 min 0 min 62 W/m 16,1 km/h (3 Bft) 97,83 %
28.01.2020 15:46 4,9 C 3,9 C 3,3 C 90 % 997,6 hPa 0,0 l/m 0 min 0 min 56 W/m 19,3 km/h (3 Bft) 95,74 %
28.01.2020 15:48 4,9 C 3,9 C 3,3 C 89 % 997,6 hPa 0,0 l/m 0 min 2 min 48 W/m 16,1 km/h (3 Bft) 97,87 %
28.01.2020 15:50 4,9 C 3,3 C 3,3 C 90 % 997,7 hPa 0,0 l/m 0 min 0 min 35 W/m 22,5 km/h (4 Bft) 97,87 %
28.01.2020 15:52 4,9 C 3,3 C 3,3 C 89 % 997,7 hPa 0,0 l/m 0 min 2 min 38 W/m 35,4 km/h (5 Bft) 97,87 %
28.01.2020 15:54 4,9 C 3,3 C 3,3 C 89 % 997,7 hPa 0,0 l/m 0 min 2 min 42 W/m 12,9 km/h (3 Bft) 97,87 %
28.01.2020 15:56 4,9 C 3,3 C 3,3 C 89 % 997,8 hPa 0,0 l/m 0 min 0 min 44 W/m 9,7 km/h (2 Bft) 97,83 %
28.01.2020 15:58 4,9 C 3,3 C 3,3 C 89 % 997,8 hPa 0,0 l/m 0 min 0 min 49 W/m 19,3 km/h (3 Bft) 95,74 %
28.01.2020 16:00 4,8 C 3,9 C 3,3 C 89 % 997,8 hPa 0,0 l/m 0 min 0 min 42 W/m 19,3 km/h (3 Bft) 95,74 %
28.01.2020 16:02 4,8 C 3,9 C 3,3 C 89 % 997,8 hPa 0,0 l/m 0 min 0 min 38 W/m 12,9 km/h (3 Bft) 97,87 %
28.01.2020 16:04 4,8 C 3,9 C 3,3 C 89 % 997,8 hPa 0,0 l/m 0 min 0 min 34 W/m 12,9 km/h (3 Bft) 95,74 %
28.01.2020 16:06 4,8 C 3,9 C 3,3 C 89 % 997,8 hPa 0,0 l/m 0 min 0 min 27 W/m 19,3 km/h (3 Bft) 97,87 %
28.01.2020 16:08 4,8 C 3,9 C 3,3 C 89 % 997,7 hPa 0,0 l/m 0 min 0 min 18 W/m 16,1 km/h (3 Bft) 97,83 %
28.01.2020 16:10 4,8 C 3,9 C 3,3 C 89 % 997,7 hPa 0,0 l/m 0 min 2 min 13 W/m 12,9 km/h (3 Bft) 95,74 %
28.01.2020 16:12 4,8 C 3,9 C 3,3 C 89 % 997,8 hPa 0,0 l/m 0 min 0 min 14 W/m 16,1 km/h (3 Bft) 97,87 %
28.01.2020 16:14 4,8 C 3,9 C 3,3 C 89 % 997,7 hPa 0,0 l/m 0 min 2 min 20 W/m 19,3 km/h (3 Bft) 97,87 %
28.01.2020 16:16 4,8 C 3,9 C 3,3 C 89 % 997,7 hPa 0,0 l/m 0 min 2 min 32 W/m 16,1 km/h (3 Bft) 100,00 %
28.01.2020 16:18 4,8 C 3,9 C 3,3 C 89 % 997,7 hPa 0,0 l/m 0 min 2 min 54 W/m 41,8 km/h (6 Bft) 100,00 %
28.01.2020 16:20 4,8 C 3,9 C 3,9 C 88 % 997,8 hPa 0,0 l/m 2 min 2 min 71 W/m 29,0 km/h (5 Bft) 97,83 %
28.01.2020 16:22 4,8 C 3,9 C 3,9 C 88 % 997,8 hPa 0,0 l/m 2 min 2 min 81 W/m 19,3 km/h (3 Bft) 100,00 %
28.01.2020 16:24 4,9 C 4,4 C 3,3 C 88 % 997,9 hPa 0,2 l/m 2 min 0 min 65 W/m 38,6 km/h (5 Bft) 100,00 %
28.01.2020 16:26 4,9 C 4,4 C 3,9 C 87 % 998,0 hPa 0,0 l/m 0 min 2 min 47 W/m 25,7 km/h (4 Bft) 100,00 %
28.01.2020 16:28 4,9 C 4,4 C 3,3 C 87 % 998,1 hPa 0,0 l/m 0 min 0 min 37 W/m 16,1 km/h (3 Bft) 100,00 %
28.01.2020 16:30 4,9 C 4,4 C 3,3 C 87 % 998,2 hPa 0,0 l/m 0 min 0 min 37 W/m 19,3 km/h (3 Bft) 100,00 %
28.01.2020 16:32 4,9 C 4,4 C 3,3 C 86 % 998,2 hPa 0,0 l/m 0 min 0 min 36 W/m 19,3 km/h (3 Bft) 100,00 %
28.01.2020 16:34 4,9 C 4,4 C 3,3 C 86 % 998,2 hPa 0,0 l/m 0 min 0 min 34 W/m 22,5 km/h (4 Bft) 100,00 %
28.01.2020 16:36 4,9 C 4,4 C 3,3 C 86 % 998,2 hPa 0,0 l/m 0 min 0 min 30 W/m 19,3 km/h (3 Bft) 100,00 %
28.01.2020 16:38 4,9 C 4,4 C 3,3 C 85 % 998,2 hPa 0,0 l/m 0 min 0 min 24 W/m 22,5 km/h (4 Bft) 100,00 %
28.01.2020 16:40 4,9 C 4,4 C 3,3 C 85 % 998,2 hPa 0,0 l/m 0 min 0 min 19 W/m 25,7 km/h (4 Bft) 100,00 %
28.01.2020 16:42 4,9 C 3,9 C 3,3 C 85 % 998,2 hPa 0,0 l/m 0 min 0 min 17 W/m 22,5 km/h (4 Bft) 100,00 %
28.01.2020 16:44 4,8 C 4,4 C 3,3 C 84 % 998,2 hPa 0,0 l/m 0 min 0 min 16 W/m 25,7 km/h (4 Bft) 97,87 %
28.01.2020 16:46 4,8 C 3,9 C 3,3 C 84 % 998,2 hPa 0,0 l/m 0 min 0 min 14 W/m 22,5 km/h (4 Bft) 97,87 %
28.01.2020 16:48 4,8 C 3,9 C 3,3 C 84 % 998,2 hPa 0,0 l/m 0 min 0 min 14 W/m 19,3 km/h (3 Bft) 95,74 %
28.01.2020 16:50 4,8 C 3,9 C 3,3 C 83 % 998,2 hPa 0,0 l/m 0 min 0 min 14 W/m 25,7 km/h (4 Bft) 95,74 %
28.01.2020 16:52 4,8 C 3,9 C 3,3 C 83 % 998,4 hPa 0,0 l/m 0 min 0 min 13 W/m 29,0 km/h (5 Bft) 97,87 %
28.01.2020 16:54 4,8 C 3,9 C 2,8 C 83 % 998,5 hPa 0,0 l/m 0 min 0 min 12 W/m 32,2 km/h (5 Bft) 93,48 %
28.01.2020 16:56 4,7 C 3,9 C 3,3 C 83 % 998,4 hPa 0,0 l/m 0 min 0 min 11 W/m 16,1 km/h (3 Bft) 95,74 %
28.01.2020 16:58 4,7 C 3,9 C 2,8 C 83 % 998,5 hPa 0,0 l/m 0 min 0 min 11 W/m 16,1 km/h (3 Bft) 97,87 %
28.01.2020 17:00 4,7 C 3,9 C 2,8 C 83 % 998,5 hPa 0,0 l/m 0 min 0 min 9 W/m 19,3 km/h (3 Bft) 97,87 %
28.01.2020 17:02 4,7 C 3,9 C 2,8 C 83 % 998,6 hPa 0,0 l/m 0 min 0 min 9 W/m 19,3 km/h (3 Bft) 93,62 %
28.01.2020 17:04 4,7 C 3,9 C 2,8 C 83 % 998,5 hPa 0,0 l/m 0 min 0 min 8 W/m 12,9 km/h (3 Bft) 93,62 %
28.01.2020 17:06 4,6 C 3,9 C 2,8 C 83 % 998,7 hPa 0,0 l/m 0 min 0 min 7 W/m 12,9 km/h (3 Bft) 95,65 %
28.01.2020 17:08 4,6 C 3,9 C 2,8 C 83 % 998,7 hPa 0,0 l/m 0 min 0 min 7 W/m 19,3 km/h (3 Bft) 91,49 %
28.01.2020 17:10 4,6 C 3,9 C 2,8 C 82 % 998,7 hPa 0,0 l/m 0 min 0 min 5 W/m 19,3 km/h (3 Bft) 95,74 %
28.01.2020 17:12 4,6 C 3,9 C 2,8 C 82 % 998,7 hPa 0,0 l/m 0 min 0 min 5 W/m 16,1 km/h (3 Bft) 91,49 %
28.01.2020 17:14 4,6 C 3,3 C 2,8 C 83 % 998,7 hPa 0,0 l/m 0 min 0 min 4 W/m 16,1 km/h (3 Bft) 95,74 %
28.01.2020 17:16 4,5 C 3,9 C 2,8 C 83 % 998,7 hPa 0,0 l/m 0 min 0 min 0 W/m 22,5 km/h (4 Bft) 95,74 %
28.01.2020 17:18 4,5 C 3,9 C 2,8 C 83 % 998,8 hPa 0,0 l/m 0 min 0 min 0 W/m 16,1 km/h (3 Bft) 95,65 %
28.01.2020 17:20 4,4 C 3,9 C 2,8 C 83 % 998,8 hPa 0,0 l/m 0 min 0 min 0 W/m 16,1 km/h (3 Bft) 91,49 %
28.01.2020 17:22 4,4 C 3,9 C 2,8 C 83 % 998,9 hPa 0,0 l/m 0 min 0 min 0 W/m 12,9 km/h (3 Bft) 93,62 %
28.01.2020 17:24 4,4 C 3,9 C 2,8 C 83 % 998,8 hPa 0,0 l/m 0 min 0 min 0 W/m 19,3 km/h (3 Bft) 93,62 %
28.01.2020 17:26 4,4 C 3,9 C 2,8 C 83 % 998,9 hPa 0,0 l/m 0 min 0 min 0 W/m 16,1 km/h (3 Bft) 91,49 %
28.01.2020 17:28 4,4 C 3,9 C 2,8 C 83 % 999,0 hPa 0,0 l/m 0 min 0 min 0 W/m 12,9 km/h (3 Bft) 95,74 %
28.01.2020 17:30 4,4 C 3,3 C 2,8 C 83 % 999,0 hPa 0,0 l/m 0 min 0 min 0 W/m 12,9 km/h (3 Bft) 93,48 %
28.01.2020 17:32 4,4 C 3,3 C 2,8 C 84 % 999,0 hPa 0,0 l/m 0 min 0 min 0 W/m 6,4 km/h (2 Bft) 97,87 %
28.01.2020 17:34 4,3 C 3,3 C 2,8 C 84 % 998,9 hPa 0,0 l/m 0 min 0 min 0 W/m 12,9 km/h (3 Bft) 95,74 %
28.01.2020 17:36 4,3 C 3,3 C 2,8 C 84 % 999,0 hPa 0,0 l/m 0 min 0 min 0 W/m 16,1 km/h (3 Bft) 95,74 %
28.01.2020 17:38 4,3 C 3,3 C 2,8 C 84 % 999,0 hPa 0,0 l/m 0 min 0 min 0 W/m 12,9 km/h (3 Bft) 97,87 %
28.01.2020 17:40 4,3 C 3,3 C 2,8 C 84 % 999,0 hPa 0,0 l/m 0 min 0 min 0 W/m 9,7 km/h (2 Bft) 97,83 %
28.01.2020 17:42 4,2 C 3,3 C 2,8 C 84 % 999,0 hPa 0,0 l/m 0 min 0 min 0 W/m 22,5 km/h (4 Bft) 97,87 %
28.01.2020 17:44 4,2 C 3,3 C 2,8 C 84 % 999,0 hPa 0,0 l/m 0 min 0 min 0 W/m 16,1 km/h (3 Bft) 98,00 %
28.01.2020 17:46 4,2 C 3,3 C 2,8 C 84 % 999,0 hPa 0,0 l/m 0 min 0 min 0 W/m 12,9 km/h (3 Bft) 95,74 %
28.01.2020 17:48 4,2 C 3,3 C 2,8 C 84 % 999,0 hPa 0,0 l/m 0 min 0 min 0 W/m 12,9 km/h (3 Bft) 100,00 %
28.01.2020 17:50 4,2 C 3,3 C 2,8 C 84 % 999,0 hPa 0,0 l/m 0 min 0 min 0 W/m 12,9 km/h (3 Bft) 100,00 %
28.01.2020 17:52 4,2 C 3,3 C 2,8 C 84 % 999,0 hPa 0,0 l/m 0 min 0 min 0 W/m 16,1 km/h (3 Bft) 100,00 %
28.01.2020 17:54 4,2 C 3,3 C 2,8 C 84 % 999,0 hPa 0,0 l/m 0 min 0 min 0 W/m 16,1 km/h (3 Bft) 100,00 %
28.01.2020 17:56 4,2 C 3,3 C 2,8 C 84 % 999,1 hPa 0,0 l/m 0 min 0 min 0 W/m 16,1 km/h (3 Bft) 100,00 %
28.01.2020 17:58 4,2 C 3,3 C 2,8 C 84 % 999,1 hPa 0,0 l/m 0 min 0 min 0 W/m 9,7 km/h (2 Bft) 100,00 %
28.01.2020 18:00 4,1 C 3,3 C 2,8 C 83 % 999,2 hPa 0,0 l/m 0 min 0 min 0 W/m 12,9 km/h (3 Bft) 100,00 %
28.01.2020 18:02 4,1 C 3,9 C 2,8 C 84 % 999,2 hPa 0,0 l/m 0 min 0 min 0 W/m 16,1 km/h (3 Bft) 100,00 %
28.01.2020 18:04 4,2 C 3,9 C 2,8 C 83 % 999,3 hPa 0,0 l/m 0 min 0 min 0 W/m 16,1 km/h (3 Bft) 100,00 %
28.01.2020 18:06 4,2 C 3,9 C 2,8 C 83 % 999,2 hPa 0,0 l/m 0 min 0 min 0 W/m 16,1 km/h (3 Bft) 100,00 %
28.01.2020 18:08 4,2 C 3,9 C 2,8 C 83 % 999,3 hPa 0,0 l/m 0 min 0 min 0 W/m 19,3 km/h (3 Bft) 100,00 %
28.01.2020 18:10 4,2 C 3,9 C 3,3 C 83 % 999,3 hPa 0,0 l/m 0 min 0 min 0 W/m 16,1 km/h (3 Bft) 100,00 %
28.01.2020 18:12 4,2 C 3,9 C 3,3 C 83 % 999,3 hPa 0,0 l/m 0 min 0 min 0 W/m 12,9 km/h (3 Bft) 97,96 %
28.01.2020 18:14 4,3 C 3,9 C 3,3 C 82 % 999,3 hPa 0,0 l/m 0 min 0 min 0 W/m 16,1 km/h (3 Bft) 100,00 %
28.01.2020 18:16 4,3 C 3,9 C 3,3 C 82 % 999,4 hPa 0,0 l/m 0 min 0 min 0 W/m 16,1 km/h (3 Bft) 100,00 %
28.01.2020 18:18 4,3 C 3,9 C 3,3 C 82 % 999,4 hPa 0,0 l/m 0 min 0 min 0 W/m 19,3 km/h (3 Bft) 100,00 %
28.01.2020 18:20 4,3 C 3,9 C 3,3 C 82 % 999,5 hPa 0,0 l/m 0 min 0 min 0 W/m 19,3 km/h (3 Bft) 100,00 %
28.01.2020 18:22 4,4 C 3,9 C 3,3 C 82 % 999,4 hPa 0,0 l/m 0 min 0 min 0 W/m 16,1 km/h (3 Bft) 100,00 %
28.01.2020 18:24 4,4 C 3,9 C 3,3 C 82 % 999,5 hPa 0,0 l/m 0 min 0 min 0 W/m 16,1 km/h (3 Bft) 97,87 %
28.01.2020 18:26 4,4 C 3,9 C 3,3 C 82 % 999,5 hPa 0,0 l/m 0 min 0 min 0 W/m 22,5 km/h (4 Bft) 97,87 %
28.01.2020 18:28 4,4 C 3,9 C 3,3 C 82 % 999,5 hPa 0,0 l/m 0 min 0 min 0 W/m 16,1 km/h (3 Bft) 100,00 %
28.01.2020 18:30 4,5 C 3,9 C 3,3 C 82 % 999,5 hPa 0,0 l/m 0 min 0 min 0 W/m 19,3 km/h (3 Bft) 100,00 %
28.01.2020 18:32 4,5 C 3,9 C 3,3 C 81 % 999,5 hPa 0,0 l/m 0 min 0 min 0 W/m 12,9 km/h (3 Bft) 100,00 %
28.01.2020 18:34 4,6 C 3,9 C 3,3 C 81 % 999,5 hPa 0,0 l/m 0 min 0 min 0 W/m 12,9 km/h (3 Bft) 100,00 %
28.01.2020 18:36 4,6 C 3,9 C 3,3 C 81 % 999,6 hPa 0,0 l/m 0 min 0 min 0 W/m 19,3 km/h (3 Bft) 100,00 %
28.01.2020 18:38 4,6 C 3,9 C 3,3 C 81 % 999,6 hPa 0,0 l/m 0 min 0 min 0 W/m 25,7 km/h (4 Bft) 100,00 %
28.01.2020 18:40 4,6 C 3,9 C 3,3 C 81 % 999,6 hPa 0,0 l/m 0 min 0 min 0 W/m 19,3 km/h (3 Bft) 100,00 %
28.01.2020 18:42 4,6 C 3,9 C 3,3 C 81 % 999,5 hPa 0,0 l/m 0 min 0 min 0 W/m 19,3 km/h (3 Bft) 97,87 %
28.01.2020 18:44 4,6 C 3,9 C 3,3 C 81 % 999,5 hPa 0,0 l/m 0 min 0 min 0 W/m 22,5 km/h (4 Bft) 100,00 %
28.01.2020 18:46 4,6 C 3,9 C 3,3 C 81 % 999,6 hPa 0,0 l/m 0 min 0 min 0 W/m 25,7 km/h (4 Bft) 100,00 %
28.01.2020 18:48 4,6 C 3,9 C 3,3 C 81 % 999,5 hPa 0,0 l/m 0 min 0 min 0 W/m 16,1 km/h (3 Bft) 97,87 %
28.01.2020 18:50 4,6 C 3,9 C 3,3 C 81 % 999,5 hPa 0,0 l/m 0 min 0 min 0 W/m 19,3 km/h (3 Bft) 100,00 %
28.01.2020 18:52 4,6 C 3,9 C 3,3 C 81 % 999,6 hPa 0,0 l/m 0 min 0 min 0 W/m 16,1 km/h (3 Bft) 100,00 %
28.01.2020 18:54 4,6 C 3,9 C 3,3 C 80 % 999,6 hPa 0,0 l/m 0 min 0 min 0 W/m 19,3 km/h (3 Bft) 100,00 %
28.01.2020 18:56 4,6 C 3,9 C 3,3 C 80 % 999,6 hPa 0,0 l/m 0 min 0 min 0 W/m 16,1 km/h (3 Bft) 100,00 %
28.01.2020 18:58 4,6 C 3,9 C 3,3 C 80 % 999,7 hPa 0,0 l/m 0 min 0 min 0 W/m 19,3 km/h (3 Bft) 100,00 %
28.01.2020 19:00 4,6 C 3,9 C 3,3 C 80 % 999,7 hPa 0,0 l/m 0 min 0 min 0 W/m 9,7 km/h (2 Bft) 97,87 %
28.01.2020 19:02 4,6 C 3,9 C 2,8 C 80 % 999,7 hPa 0,0 l/m 0 min 0 min 0 W/m 16,1 km/h (3 Bft) 97,83 %
28.01.2020 19:04 4,6 C 3,9 C 2,8 C 80 % 999,8 hPa 0,0 l/m 0 min 0 min 0 W/m 19,3 km/h (3 Bft) 97,87 %
28.01.2020 19:06 4,6 C 3,9 C 2,8 C 79 % 999,8 hPa 0,0 l/m 0 min 0 min 0 W/m 16,1 km/h (3 Bft) 97,87 %
28.01.2020 19:08 4,6 C 3,9 C 2,8 C 79 % 999,8 hPa 0,0 l/m 0 min 0 min 0 W/m 12,9 km/h (3 Bft) 97,87 %
28.01.2020 19:10 4,6 C 3,9 C 2,8 C 79 % 999,8 hPa 0,0 l/m 0 min 0 min 0 W/m 12,9 km/h (3 Bft) 97,87 %
28.01.2020 19:12 4,5 C 3,9 C 2,8 C 79 % 999,8 hPa 0,0 l/m 0 min 0 min 0 W/m 38,6 km/h (5 Bft) 95,74 %
28.01.2020 19:16 4,5 C 3,9 C 2,8 C 79 % 999,8 hPa 0,0 l/m 0 min 0 min 0 W/m 16,1 km/h (3 Bft) 97,67 %
28.01.2020 19:18 4,4 C 3,9 C 3,3 C 79 % 999,8 hPa 0,0 l/m 0 min 0 min 0 W/m 19,3 km/h (3 Bft) 95,74 %
28.01.2020 19:20 4,4 C 3,9 C 2,8 C 79 % 999,8 hPa 0,0 l/m 0 min 0 min 0 W/m 16,1 km/h (3 Bft) 100,00 %
28.01.2020 19:22 4,4 C 3,9 C 2,8 C 79 % 999,8 hPa 0,0 l/m 0 min 0 min 0 W/m 16,1 km/h (3 Bft) 93,62 %
28.01.2020 19:24 4,4 C 3,9 C 2,8 C 79 % 999,8 hPa 0,0 l/m 0 min 0 min 0 W/m 12,9 km/h (3 Bft) 97,87 %
28.01.2020 19:26 4,4 C 3,9 C 3,3 C 80 % 999,8 hPa 0,0 l/m 0 min 0 min 0 W/m 32,2 km/h (5 Bft) 95,74 %
28.01.2020 19:28 4,4 C 3,9 C 2,8 C 80 % 999,8 hPa 0,0 l/m 0 min 0 min 0 W/m 12,9 km/h (3 Bft) 97,83 %
28.01.2020 19:30 4,4 C 3,9 C 2,8 C 80 % 999,8 hPa 0,0 l/m 0 min 0 min 0 W/m 16,1 km/h (3 Bft) 97,87 %
28.01.2020 19:32 4,4 C 3,9 C 2,8 C 80 % 999,8 hPa 0,0 l/m 0 min 0 min 0 W/m 16,1 km/h (3 Bft) 93,62 %
28.01.2020 19:34 4,4 C 3,9 C 2,8 C 80 % 999,8 hPa 0,0 l/m 0 min 0 min 0 W/m 16,1 km/h (3 Bft) 95,74 %
28.01.2020 19:36 4,4 C 3,9 C 2,8 C 81 % 999,9 hPa 0,0 l/m 0 min 0 min 0 W/m 12,9 km/h (3 Bft) 95,74 %
28.01.2020 19:38 4,4 C 3,9 C 3,3 C 81 % 999,8 hPa 0,0 l/m 0 min 0 min 0 W/m 25,7 km/h (4 Bft) 95,74 %
28.01.2020 19:40 4,5 C 3,9 C 3,3 C 82 % 999,8 hPa 0,0 l/m 0 min 0 min 0 W/m 41,8 km/h (6 Bft) 91,30 %
28.01.2020 19:42 4,5 C 3,9 C 3,3 C 82 % 999,9 hPa 0,0 l/m 0 min 0 min 0 W/m 22,5 km/h (4 Bft) 93,62 %
28.01.2020 19:44 4,5 C 3,9 C 2,8 C 82 % 999,9 hPa 0,0 l/m 0 min 0 min 0 W/m 19,3 km/h (3 Bft) 93,62 %
28.01.2020 19:46 4,5 C 3,9 C 2,8 C 83 % 999,9 hPa 0,0 l/m 0 min 0 min 0 W/m 22,5 km/h (4 Bft) 91,49 %
28.01.2020 19:48 4,5 C 3,3 C 2,8 C 83 % 999,9 hPa 0,0 l/m 0 min 0 min 0 W/m 16,1 km/h (3 Bft) 93,62 %
28.01.2020 19:50 4,5 C 3,9 C 2,8 C 84 % 999,9 hPa 0,0 l/m 0 min 0 min 0 W/m 25,7 km/h (4 Bft) 93,62 %
28.01.2020 19:52 4,5 C 3,9 C 2,8 C 84 % 999,9 hPa 0,0 l/m 0 min 0 min 0 W/m 19,3 km/h (3 Bft) 93,48 %
28.01.2020 19:54 4,5 C 3,9 C 2,8 C 85 % 1000,0 hPa 0,0 l/m 0 min 0 min 0 W/m 29,0 km/h (5 Bft) 93,62 %
28.01.2020 19:56 4,4 C 3,9 C 2,8 C 85 % 1000,0 hPa 0,0 l/m 0 min 0 min 0 W/m 25,7 km/h (4 Bft) 93,62 %
28.01.2020 19:58 4,4 C 3,9 C 2,8 C 85 % 1000,0 hPa 0,0 l/m 0 min 0 min 0 W/m 22,5 km/h (4 Bft) 92,45 %
28.01.2020 20:00 4,4 C 3,3 C 2,8 C 85 % 1000,1 hPa 0,0 l/m 0 min 0 min 0 W/m 19,3 km/h (3 Bft) 90,00 %
28.01.2020 20:02 4,4 C 3,3 C 2,8 C 85 % 1000,0 hPa 0,0 l/m 0 min 0 min 0 W/m 22,5 km/h (4 Bft) 93,88 %
28.01.2020 20:04 4,4 C 3,9 C 2,8 C 85 % 1000,0 hPa 0,0 l/m 0 min 0 min 0 W/m 29,0 km/h (5 Bft) 95,74 %
28.01.2020 20:06 4,4 C 3,9 C 2,8 C 86 % 1000,1 hPa 0,0 l/m 0 min 0 min 0 W/m 22,5 km/h (4 Bft) 95,24 %
28.01.2020 20:08 4,4 C 3,9 C 2,8 C 86 % 1000,0 hPa 0,0 l/m 0 min 0 min 0 W/m 19,3 km/h (3 Bft) 95,92 %
28.01.2020 20:10 4,4 C 3,3 C 2,8 C 86 % 1000,1 hPa 0,0 l/m 0 min 0 min 0 W/m 12,9 km/h (3 Bft) 96,00 %
28.01.2020 20:12 4,4 C 3,3 C 2,8 C 86 % 1000,0 hPa 0,0 l/m 0 min 0 min 0 W/m 19,3 km/h (3 Bft) 97,83 %
28.01.2020 20:14 4,3 C 3,3 C 2,8 C 86 % 1000,1 hPa 0,0 l/m 0 min 0 min 0 W/m 19,3 km/h (3 Bft) 97,62 %
28.01.2020 20:16 4,3 C 3,3 C 2,8 C 86 % 1000,0 hPa 0,0 l/m 0 min 0 min 0 W/m 22,5 km/h (4 Bft) 98,00 %
28.01.2020 20:18 4,3 C 3,9 C 2,8 C 87 % 1000,0 hPa 0,0 l/m 0 min 0 min 0 W/m 22,5 km/h (4 Bft) 95,92 %
28.01.2020 20:21 4,3 C 3,3 C 2,8 C 87 % 1000,1 hPa 0,0 l/m 0 min 0 min 0 W/m 19,3 km/h (3 Bft) 98,57 %
28.01.2020 20:22 4,3 C 3,3 C 2,8 C 87 % 1000,1 hPa 0,0 l/m 0 min 0 min 0 W/m 16,1 km/h (3 Bft) 95,83 %
28.01.2020 20:24 4,3 C 3,3 C 2,8 C 87 % 1000,1 hPa 0,0 l/m 0 min 0 min 0 W/m 29,0 km/h (5 Bft) 97,83 %
28.01.2020 20:26 4,3 C 3,3 C 2,8 C 87 % 1000,1 hPa 0,0 l/m 0 min 0 min 0 W/m 32,2 km/h (5 Bft) 97,87 %
28.01.2020 20:28 4,3 C 3,3 C 2,8 C 87 % 1000,1 hPa 0,0 l/m 0 min 0 min 0 W/m 35,4 km/h (5 Bft) 100,00 %
28.01.2020 20:30 4,3 C 3,3 C 2,8 C 87 % 1000,1 hPa 0,0 l/m 0 min 0 min 0 W/m 29,0 km/h (5 Bft) 100,00 %
28.01.2020 20:32 4,3 C 3,3 C 2,8 C 87 % 1000,1 hPa 0,0 l/m 0 min 0 min 0 W/m 25,7 km/h (4 Bft) 97,87 %
28.01.2020 20:34 4,3 C 3,9 C 2,8 C 88 % 1000,0 hPa 0,0 l/m 0 min 0 min 0 W/m 38,6 km/h (5 Bft) 100,00 %
28.01.2020 20:36 4,3 C 3,9 C 2,8 C 88 % 1000,0 hPa 0,0 l/m 0 min 0 min 0 W/m 29,0 km/h (5 Bft) 95,74 %
28.01.2020 20:38 4,3 C 3,3 C 2,8 C 88 % 1000,1 hPa 0,0 l/m 0 min 0 min 0 W/m 32,2 km/h (5 Bft) 100,00 %
28.01.2020 20:40 4,3 C 3,3 C 2,8 C 88 % 999,9 hPa 0,0 l/m 0 min 0 min 0 W/m 19,3 km/h (3 Bft) 100,00 %
28.01.2020 20:42 4,3 C 3,3 C 2,8 C 88 % 1000,0 hPa 0,0 l/m 0 min 0 min 0 W/m 16,1 km/h (3 Bft) 100,00 %
28.01.2020 20:44 4,3 C 3,3 C 2,8 C 88 % 1000,0 hPa 0,0 l/m 0 min 0 min 0 W/m 16,1 km/h (3 Bft) 100,00 %
28.01.2020 20:46 4,3 C 3,3 C 2,8 C 88 % 1000,0 hPa 0,0 l/m 0 min 0 min 0 W/m 29,0 km/h (5 Bft) 97,83 %
28.01.2020 20:48 4,2 C 3,3 C 2,8 C 88 % 1000,0 hPa 0,0 l/m 0 min 0 min 0 W/m 16,1 km/h (3 Bft) 100,00 %
28.01.2020 20:50 4,2 C 3,3 C 2,8 C 88 % 1000,2 hPa 0,0 l/m 0 min 0 min 0 W/m 22,5 km/h (4 Bft) 93,62 %
28.01.2020 20:52 4,2 C 3,3 C 2,8 C 88 % 1000,2 hPa 0,0 l/m 0 min 0 min 0 W/m 29,0 km/h (5 Bft) 100,00 %
28.01.2020 20:54 4,2 C 3,3 C 2,8 C 88 % 1000,0 hPa 0,0 l/m 0 min 0 min 0 W/m 29,0 km/h (5 Bft) 97,87 %
28.01.2020 20:56 4,3 C 3,9 C 2,8 C 88 % 1000,0 hPa 0,0 l/m 0 min 0 min 0 W/m 32,2 km/h (5 Bft) 100,00 %
28.01.2020 20:58 4,3 C 3,3 C 2,8 C 88 % 1000,0 hPa 0,0 l/m 0 min 0 min 0 W/m 29,0 km/h (5 Bft) 97,83 %
28.01.2020 21:00 4,3 C 3,3 C 2,8 C 88 % 1000,0 hPa 0,0 l/m 0 min 0 min 0 W/m 22,5 km/h (4 Bft) 100,00 %
28.01.2020 21:02 4,3 C 3,3 C 2,8 C 88 % 1000,0 hPa 0,0 l/m 0 min 0 min 0 W/m 25,7 km/h (4 Bft) 100,00 %
28.01.2020 21:04 4,3 C 3,3 C 2,8 C 88 % 1000,0 hPa 0,0 l/m 0 min 0 min 0 W/m 32,2 km/h (5 Bft) 100,00 %
28.01.2020 21:06 4,3 C 3,3 C 2,8 C 88 % 1000,0 hPa 0,0 l/m 0 min 0 min 0 W/m 19,3 km/h (3 Bft) 97,87 %
28.01.2020 21:08 4,3 C 3,3 C 2,8 C 88 % 1000,0 hPa 0,0 l/m 0 min 0 min 0 W/m 19,3 km/h (3 Bft) 97,87 %
28.01.2020 21:10 4,3 C 3,3 C 2,8 C 88 % 1000,0 hPa 0,0 l/m 0 min 0 min 0 W/m 22,5 km/h (4 Bft) 100,00 %
28.01.2020 21:12 4,3 C 3,3 C 2,8 C 88 % 999,9 hPa 0,0 l/m 0 min 0 min 0 W/m 29,0 km/h (5 Bft) 100,00 %
28.01.2020 21:14 4,2 C 3,3 C 2,8 C 88 % 1000,0 hPa 0,0 l/m 0 min 0 min 0 W/m 25,7 km/h (4 Bft) 100,00 %
28.01.2020 21:16 4,2 C 3,3 C 2,8 C 88 % 999,9 hPa 0,0 l/m 0 min 0 min 0 W/m 22,5 km/h (4 Bft) 97,87 %
28.01.2020 21:18 4,3 C 3,9 C 2,8 C 88 % 999,9 hPa 0,0 l/m 0 min 0 min 0 W/m 32,2 km/h (5 Bft) 100,00 %
28.01.2020 21:20 4,2 C 3,3 C 2,8 C 88 % 999,9 hPa 0,0 l/m 0 min 0 min 0 W/m 29,0 km/h (5 Bft) 100,00 %
28.01.2020 21:22 4,3 C 3,3 C 2,8 C 88 % 999,9 hPa 0,0 l/m 0 min 0 min 0 W/m 19,3 km/h (3 Bft) 100,00 %
28.01.2020 21:24 4,2 C 3,3 C 2,8 C 88 % 999,9 hPa 0,0 l/m 0 min 0 min 0 W/m 29,0 km/h (5 Bft) 100,00 %
28.01.2020 21:26 4,3 C 3,3 C 2,8 C 88 % 999,9 hPa 0,0 l/m 0 min 0 min 0 W/m 32,2 km/h (5 Bft) 97,87 %
28.01.2020 21:28 4,3 C 3,3 C 2,8 C 88 % 999,9 hPa 0,0 l/m 0 min 0 min 0 W/m 29,0 km/h (5 Bft) 97,87 %
28.01.2020 21:30 4,3 C 3,9 C 2,8 C 88 % 999,9 hPa 0,0 l/m 0 min 0 min 0 W/m 29,0 km/h (5 Bft) 100,00 %
28.01.2020 21:32 4,3 C 3,9 C 2,8 C 88 % 999,9 hPa 0,0 l/m 0 min 0 min 0 W/m 29,0 km/h (5 Bft) 100,00 %
28.01.2020 21:34 4,3 C 3,9 C 3,3 C 88 % 999,9 hPa 0,0 l/m 0 min 0 min 0 W/m 29,0 km/h (5 Bft) 100,00 %
28.01.2020 21:36 4,3 C 3,9 C 3,3 C 88 % 1000,0 hPa 0,0 l/m 0 min 0 min 0 W/m 32,2 km/h (5 Bft) 97,87 %
28.01.2020 21:38 4,4 C 3,9 C 3,3 C 88 % 1000,0 hPa 0,0 l/m 0 min 0 min 0 W/m 41,8 km/h (6 Bft) 100,00 %
28.01.2020 21:40 4,4 C 3,9 C 3,3 C 88 % 1000,1 hPa 0,0 l/m 0 min 0 min 0 W/m 35,4 km/h (5 Bft) 100,00 %
28.01.2020 21:42 4,4 C 3,9 C 3,3 C 88 % 1000,0 hPa 0,0 l/m 0 min 0 min 0 W/m 19,3 km/h (3 Bft) 100,00 %
28.01.2020 21:44 4,5 C 3,9 C 3,3 C 88 % 1000,0 hPa 0,0 l/m 0 min 0 min 0 W/m 25,7 km/h (4 Bft) 97,87 %
28.01.2020 21:46 4,5 C 3,9 C 3,3 C 88 % 1000,0 hPa 0,0 l/m 0 min 0 min 0 W/m 25,7 km/h (4 Bft) 100,00 %
28.01.2020 21:48 4,6 C 3,9 C 3,3 C 88 % 1000,1 hPa 0,0 l/m 0 min 0 min 0 W/m 25,7 km/h (4 Bft) 97,87 %
28.01.2020 21:50 4,6 C 3,9 C 3,3 C 87 % 1000,1 hPa 0,0 l/m 0 min 0 min 0 W/m 25,7 km/h (4 Bft) 100,00 %
28.01.2020 21:52 4,6 C 4,4 C 3,3 C 87 % 1000,2 hPa 0,0 l/m 0 min 0 min 0 W/m 29,0 km/h (5 Bft) 100,00 %
28.01.2020 21:54 4,6 C 3,9 C 3,3 C 87 % 1000,1 hPa 0,0 l/m 0 min 0 min 0 W/m 19,3 km/h (3 Bft) 100,00 %
28.01.2020 21:56 4,6 C 3,9 C 3,3 C 87 % 1000,1 hPa 0,0 l/m 0 min 0 min 0 W/m 16,1 km/h (3 Bft) 100,00 %
28.01.2020 21:58 4,6 C 3,9 C 3,3 C 87 % 1000,1 hPa 0,0 l/m 0 min 0 min 0 W/m 12,9 km/h (3 Bft) 97,87 %
28.01.2020 22:00 4,7 C 3,9 C 3,3 C 87 % 1000,1 hPa 0,0 l/m 0 min 0 min 0 W/m 29,0 km/h (5 Bft) 100,00 %
28.01.2020 22:02 4,7 C 4,4 C 3,3 C 87 % 1000,1 hPa 0,0 l/m 0 min 0 min 0 W/m 25,7 km/h (4 Bft) 100,00 %
28.01.2020 22:04 4,7 C 4,4 C 3,3 C 87 % 1000,0 hPa 0,0 l/m 0 min 0 min 0 W/m 22,5 km/h (4 Bft) 97,87 %
28.01.2020 22:06 4,7 C 3,9 C 3,3 C 87 % 1000,0 hPa 0,0 l/m 0 min 0 min 0 W/m 25,7 km/h (4 Bft) 97,87 %
28.01.2020 22:08 4,7 C 3,9 C 3,3 C 87 % 1000,1 hPa 0,0 l/m 0 min 0 min 0 W/m 16,1 km/h (3 Bft) 97,83 %
28.01.2020 22:10 4,7 C 4,4 C 3,3 C 87 % 1000,0 hPa 0,0 l/m 0 min 0 min 0 W/m 25,7 km/h (4 Bft) 97,87 %
28.01.2020 22:12 4,7 C 3,9 C 3,3 C 87 % 1000,1 hPa 0,0 l/m 0 min 0 min 0 W/m 22,5 km/h (4 Bft) 97,87 %
28.01.2020 22:14 4,7 C 3,9 C 3,3 C 87 % 1000,1 hPa 0,0 l/m 0 min 0 min 0 W/m 16,1 km/h (3 Bft) 97,87 %
28.01.2020 22:16 4,7 C 3,9 C 3,3 C 87 % 1000,1 hPa 0,0 l/m 0 min 0 min 0 W/m 22,5 km/h (4 Bft) 97,87 %
28.01.2020 22:18 4,7 C 3,9 C 3,3 C 87 % 1000,1 hPa 0,0 l/m 0 min 0 min 0 W/m 22,5 km/h (4 Bft) 97,87 %
28.01.2020 22:20 4,7 C 3,9 C 3,3 C 87 % 1000,0 hPa 0,0 l/m 0 min 0 min 0 W/m 25,7 km/h (4 Bft) 97,83 %
28.01.2020 22:22 4,7 C 3,9 C 3,3 C 87 % 1000,1 hPa 0,0 l/m 0 min 0 min 0 W/m 22,5 km/h (4 Bft) 95,74 %
28.01.2020 22:24 4,6 C 3,9 C 3,3 C 86 % 1000,1 hPa 0,0 l/m 0 min 0 min 0 W/m 16,1 km/h (3 Bft) 97,87 %
28.01.2020 22:26 4,6 C 3,9 C 3,3 C 86 % 1000,1 hPa 0,0 l/m 0 min 0 min 0 W/m 32,2 km/h (5 Bft) 95,74 %
28.01.2020 22:28 4,6 C 3,9 C 3,3 C 86 % 1000,0 hPa 0,0 l/m 0 min 0 min 0 W/m 22,5 km/h (4 Bft) 95,74 %
28.01.2020 22:30 4,6 C 3,9 C 3,3 C 86 % 1000,0 hPa 0,0 l/m 0 min 0 min 0 W/m 22,5 km/h (4 Bft) 95,74 %
28.01.2020 22:32 4,6 C 3,9 C 3,3 C 87 % 999,9 hPa 0,0 l/m 0 min 0 min 0 W/m 16,1 km/h (3 Bft) 95,65 %
28.01.2020 22:34 4,5 C 3,9 C 3,3 C 87 % 999,9 hPa 0,0 l/m 0 min 0 min 0 W/m 35,4 km/h (5 Bft) 95,74 %
28.01.2020 22:36 4,5 C 3,9 C 3,3 C 87 % 999,9 hPa 0,0 l/m 0 min 0 min 0 W/m 22,5 km/h (4 Bft) 91,49 %
28.01.2020 22:38 4,4 C 3,9 C 2,8 C 86 % 999,9 hPa 0,0 l/m 0 min 0 min 0 W/m 22,5 km/h (4 Bft) 93,62 %
28.01.2020 22:40 4,4 C 3,3 C 2,8 C 86 % 999,8 hPa 0,0 l/m 0 min 0 min 0 W/m 25,7 km/h (4 Bft) 89,36 %
28.01.2020 22:42 4,4 C 3,3 C 2,8 C 87 % 999,8 hPa 0,0 l/m 0 min 0 min 0 W/m 29,0 km/h (5 Bft) 93,62 %
28.01.2020 22:44 4,4 C 3,3 C 2,8 C 87 % 999,8 hPa 0,0 l/m 0 min 0 min 0 W/m 19,3 km/h (3 Bft) 93,48 %
28.01.2020 22:46 4,4 C 3,3 C 2,8 C 87 % 999,9 hPa 0,0 l/m 0 min 0 min 0 W/m 25,7 km/h (4 Bft) 93,62 %
28.01.2020 22:48 4,3 C 3,3 C 2,8 C 87 % 999,8 hPa 0,0 l/m 0 min 0 min 0 W/m 25,7 km/h (4 Bft) 91,49 %
28.01.2020 22:50 4,3 C 3,3 C 2,8 C 87 % 999,8 hPa 0,0 l/m 0 min 0 min 0 W/m 22,5 km/h (4 Bft) 95,74 %
28.01.2020 22:52 4,3 C 3,3 C 2,8 C 87 % 999,9 hPa 0,0 l/m 0 min 0 min 0 W/m 19,3 km/h (3 Bft) 93,62 %
28.01.2020 22:54 4,3 C 3,3 C 2,8 C 87 % 999,9 hPa 0,0 l/m 0 min 0 min 0 W/m 25,7 km/h (4 Bft) 95,65 %
28.01.2020 22:56 4,3 C 3,3 C 2,8 C 87 % 999,9 hPa 0,0 l/m 0 min 0 min 0 W/m 19,3 km/h (3 Bft) 95,74 %
28.01.2020 22:58 4,2 C 3,3 C 2,8 C 87 % 1000,0 hPa 0,0 l/m 0 min 0 min 0 W/m 19,3 km/h (3 Bft) 93,62 %
28.01.2020 23:00 4,2 C 3,3 C 2,8 C 87 % 1000,0 hPa 0,0 l/m 0 min 0 min 0 W/m 22,5 km/h (4 Bft) 95,74 %
28.01.2020 23:02 4,2 C 3,3 C 2,8 C 87 % 1000,0 hPa 0,0 l/m 0 min 0 min 0 W/m 12,9 km/h (3 Bft) 93,62 %
28.01.2020 23:04 4,2 C 3,3 C 2,8 C 87 % 1000,0 hPa 0,0 l/m 0 min 0 min 0 W/m 12,9 km/h (3 Bft) 95,74 %
28.01.2020 23:06 4,2 C 3,3 C 2,8 C 87 % 1000,0 hPa 0,0 l/m 0 min 0 min 0 W/m 16,1 km/h (3 Bft) 97,83 %
28.01.2020 23:08 4,2 C 3,3 C 2,8 C 88 % 1000,0 hPa 0,0 l/m 0 min 0 min 0 W/m 19,3 km/h (3 Bft) 95,74 %
28.01.2020 23:10 4,2 C 3,3 C 2,8 C 88 % 1000,1 hPa 0,0 l/m 0 min 0 min 0 W/m 12,9 km/h (3 Bft) 97,87 %
28.01.2020 23:12 4,2 C 3,9 C 2,8 C 88 % 1000,1 hPa 0,0 l/m 0 min 0 min 0 W/m 19,3 km/h (3 Bft) 97,87 %
28.01.2020 23:14 4,2 C 3,9 C 2,8 C 88 % 1000,1 hPa 0,0 l/m 0 min 0 min 0 W/m 16,1 km/h (3 Bft) 97,87 %
28.01.2020 23:16 4,2 C 3,9 C 2,8 C 88 % 1000,1 hPa 0,0 l/m 0 min 0 min 0 W/m 12,9 km/h (3 Bft) 97,87 %
28.01.2020 23:18 4,2 C 3,9 C 2,8 C 88 % 1000,1 hPa 0,0 l/m 0 min 0 min 0 W/m 22,5 km/h (4 Bft) 97,83 %
28.01.2020 23:20 4,2 C 3,9 C 2,8 C 88 % 1000,1 hPa 0,0 l/m 0 min 0 min 0 W/m 25,7 km/h (4 Bft) 97,87 %
28.01.2020 23:22 4,2 C 3,9 C 2,8 C 88 % 1000,1 hPa 0,0 l/m 0 min 0 min 0 W/m 16,1 km/h (3 Bft) 97,87 %
28.01.2020 23:24 4,2 C 3,3 C 2,8 C 88 % 1000,2 hPa 0,0 l/m 0 min 0 min 0 W/m 22,5 km/h (4 Bft) 97,87 %
28.01.2020 23:26 4,2 C 3,3 C 2,8 C 88 % 1000,2 hPa 0,0 l/m 0 min 2 min 0 W/m 19,3 km/h (3 Bft) 97,87 %
28.01.2020 23:28 4,2 C 2,8 C 2,2 C 88 % 1000,2 hPa 0,0 l/m 0 min 2 min 0 W/m 16,1 km/h (3 Bft) 97,87 %
28.01.2020 23:30 4,2 C 2,8 C 2,2 C 88 % 1000,2 hPa 0,0 l/m 0 min 2 min 0 W/m 12,9 km/h (3 Bft) 95,65 %
28.01.2020 23:32 4,2 C 2,8 C 2,2 C 88 % 1000,2 hPa 0,0 l/m 0 min 2 min 0 W/m 12,9 km/h (3 Bft) 97,87 %
28.01.2020 23:34 4,2 C 2,8 C 2,2 C 89 % 1000,2 hPa 0,0 l/m 0 min 2 min 0 W/m 19,3 km/h (3 Bft) 97,87 %
28.01.2020 23:36 4,2 C 2,8 C 2,2 C 89 % 1000,2 hPa 0,0 l/m 0 min 2 min 0 W/m 19,3 km/h (3 Bft) 97,87 %
28.01.2020 23:38 4,2 C 2,8 C 2,2 C 89 % 1000,2 hPa 0,0 l/m 0 min 2 min 0 W/m 16,1 km/h (3 Bft) 100,00 %
28.01.2020 23:40 4,2 C 2,8 C 2,2 C 89 % 1000,2 hPa 0,0 l/m 0 min 2 min 0 W/m 12,9 km/h (3 Bft) 100,00 %
28.01.2020 23:42 4,1 C 2,8 C 2,2 C 89 % 1000,3 hPa 0,0 l/m 0 min 2 min 0 W/m 19,3 km/h (3 Bft) 97,83 %
28.01.2020 23:44 4,1 C 2,8 C 2,2 C 90 % 1000,3 hPa 0,0 l/m 0 min 2 min 0 W/m 25,7 km/h (4 Bft) 100,00 %
28.01.2020 23:46 4,1 C 2,8 C 2,2 C 90 % 1000,2 hPa 0,0 l/m 0 min 2 min 0 W/m 19,3 km/h (3 Bft) 100,00 %
28.01.2020 23:48 4,1 C 2,8 C 2,2 C 90 % 1000,2 hPa 0,0 l/m 0 min 2 min 0 W/m 16,1 km/h (3 Bft) 93,62 %
28.01.2020 23:50 4,1 C 2,8 C 2,2 C 90 % 1000,2 hPa 0,0 l/m 0 min 2 min 0 W/m 19,3 km/h (3 Bft) 100,00 %
28.01.2020 23:52 4,1 C 2,8 C 2,2 C 90 % 1000,2 hPa 0,0 l/m 0 min 2 min 0 W/m 19,3 km/h (3 Bft) 100,00 %
28.01.2020 23:54 4,1 C 2,8 C 2,2 C 90 % 1000,2 hPa 0,0 l/m 0 min 2 min 0 W/m 12,9 km/h (3 Bft) 100,00 %
28.01.2020 23:56 4,1 C 2,8 C 2,2 C 90 % 1000,3 hPa 0,0 l/m 0 min 2 min 0 W/m 12,9 km/h (3 Bft) 97,87 %
28.01.2020 23:58 4,1 C 2,8 C 2,2 C 91 % 1000,3 hPa 0,0 l/m 0 min 0 min 0 W/m 12,9 km/h (3 Bft) 97,87 %
_ Min-Zeit 14:38 14:24 14:26 19:06 08:06 - - - - 00:30 00:02
Minimum _ 4,1 C 2,2 C 1,7 C 79 % 990,7 hPa - - - - 3,2 km/h (1 Bft) 15,38 %
_ Max-Zeit 02:40 02:38 02:28 00:38 23:42 00:00 12:52 00:08 13:28 03:08 00:14
Maximum _ 7,6 C 7,2 C 6,1 C 97 % 1000,3 hPa 0,2 l/m 2 min 4 min 417 W/m 57,9 km/h
W-SW (7 Bft)
100,00 %
Durchschnitt _ 5,3 C 4,3 C 3,6 C 90 % 995,8 hPa #6,6 l/m #1:10 h #7:13 h 77 W/m 22,2 km/h (4 Bft) 97,07 %
© 2020 W. Hausmann